GEFSNE_500_meanwind_006.txt.gz
Wind_Speed
27 26 25 25 23 22 22 21 19 18 19 20 21 21 20 19 20 20 19 18 18 18 20 22 23 23 22 21 21 23 25 26 25 24 23 20 23 30
30 30 29 26 23 22 23 23 23 22 22 22 22 22 21 20 19 19 18 18 18 19 21 23 23 21 20 20 20 23 24 24 23 23 23 19 17 24
27 30 32 30 25 23 23 23 24 25 25 24 23 22 22 20 18 17 17 17 18 20 21 21 18 17 18 19 20 21 21 21 21 22 24 24 21 25
25 28 31 29 24 21 20 22 23 23 25 25 23 21 20 20 18 17 17 16 16 17 17 16 15 16 17 18 18 18 19 19 18 19 20 22 24 27
21 23 24 23 22 20 19 20 21 23 25 23 21 19 18 19 18 16 16 13 13 13 14 15 15 16 16 16 16 17 17 17 16 16 18 19 22 25
19 19 21 23 23 21 20 20 21 22 21 20 20 19 20 20 18 16 14 11 11 12 13 14 15 16 15 14 14 13 14 13 13 13 13 14 17 18
23 22 24 25 25 24 21 20 20 22 21 21 21 21 23 22 19 17 14 12 11 10 11 13 15 15 14 13 11 10 9 8 8 8 7 7 8 10
26 26 27 27 26 24 21 19 20 22 22 21 22 23 25 24 20 18 15 13 11 10 11 13 15 15 14 12 10 9 7 6 6 8 8 8 8 10
28 30 30 28 27 26 23 21 21 22 22 22 22 22 23 23 21 19 17 15 13 11 12 14 16 15 13 12 11 9 7 7 7 9 9 10 11 12
26 28 31 31 29 26 24 23 23 23 24 24 24 23 22 21 20 19 18 16 14 12 12 14 16 15 13 12 12 12 11 10 10 10 11 12 12 13
25 25 28 29 28 27 26 25 25 25 25 25 25 26 25 23 21 20 19 18 15 13 13 15 16 15 14 14 14 14 14 13 13 14 13 13 14 15
24 24 24 25 27 28 28 27 26 26 28 28 27 29 29 27 25 23 21 19 16 15 15 16 17 16 16 17 17 16 16 16 16 15 15 15 15 16
25 24 23 23 26 28 29 28 27 28 30 30 28 29 30 29 28 26 23 20 18 17 18 19 18 18 18 19 19 19 19 18 18 18 17 17 17 18
27 27 26 26 27 28 28 28 28 28 29 31 29 30 31 31 30 29 27 23 20 20 21 22 21 20 21 21 21 22 22 21 22 22 21 21 20 20
27 28 28 29 29 29 29 29 29 30 30 31 31 30 32 33 34 32 29 26 23 22 23 24 23 23 23 23 23 24 25 25 25 25 25 24 23 24
22 25 27 29 29 29 29 30 30 30 30 31 34 34 35 35 35 34 31 29 27 25 25 26 25 25 26 26 26 28 28 28 28 27 27 27 27 29
23 24 25 27 28 28 28 28 29 29 29 29 32 35 38 39 38 36 34 31 29 28 27 27 27 27 28 28 29 31 32 33 32 31 31 32 34 35
23 23 23 24 24 25 25 25 26 27 29 30 31 34 38 40 41 38 35 33 32 30 28 28 29 30 30 30 32 33 34 36 37 37 37 39 41 42
23 24 25 26 25 25 25 25 25 25 26 25 27 32 36 38 37 34 33 33 34 33 30 29 31 32 33 33 34 34 36 39 40 42 43 44 45 46
24 26 27 28 28 28 27 27 25 25 26 25 23 24 26 28 28 29 30 32 34 34 33 33 34 35 33 32 33 35 39 41 43 44 45 46 46 48
23 25 26 28 29 30 30 29 28 27 26 26 25 25 26 26 26 27 30 31 32 34 35 35 36 36 35 35 36 37 37 36 37 38 39 40 42 45
22 24 26 27 28 29 30 30 29 28 28 28 30 31 32 32 32 32 32 33 34 35 36 36 36 37 38 40 40 40 39 38 38 38 39 41 43 44
18 20 21 23 25 26 27 27 28 28 28 30 32 33 34 34 34 33 33 32 33 34 35 36 37 39 41 42 42 41 41 41 41 41 42 44 45 46

GEFSNE_500_meanwind_012.txt.gz
Wind_Speed
31 30 29 27 26 25 23 21 20 18 17 16 16 16 16 17 17 17 17 17 18 19 20 21 22 23 22 21 22 23 24 24 24 24 25 25 25 25
33 32 32 31 30 28 27 25 24 22 20 19 18 17 17 16 17 18 18 18 19 20 21 22 22 23 22 23 23 24 24 24 25 25 25 26 25 25
33 33 33 33 32 31 29 27 25 24 23 23 22 21 20 19 19 19 19 19 19 20 21 22 22 22 23 23 23 23 23 23 24 25 25 26 25 25
34 35 35 36 35 34 32 30 28 27 25 25 25 24 22 21 20 20 20 20 19 20 21 22 22 22 23 23 21 21 21 22 23 25 27 27 27 27
35 35 36 36 35 35 34 34 32 30 28 27 26 24 22 20 20 21 21 20 19 20 21 23 23 22 22 22 20 20 19 20 23 26 28 29 29 28
33 33 34 34 33 33 33 34 34 32 30 28 26 24 22 21 21 21 20 20 19 20 21 23 23 22 21 20 19 18 18 19 22 25 27 28 28 29
29 29 30 31 31 31 32 33 33 32 30 28 25 24 23 21 20 21 21 20 21 21 22 23 22 21 20 19 17 16 17 18 20 22 24 23 22 22
28 29 29 29 29 29 31 32 32 31 29 26 25 24 23 21 21 22 22 22 23 24 24 23 22 21 20 18 17 16 16 17 17 18 18 16 14 12
29 29 29 28 28 28 30 30 30 29 28 26 25 25 25 23 22 21 21 23 25 25 25 24 22 21 20 20 19 18 17 17 16 14 13 11 9 6
28 29 29 29 28 28 29 29 29 29 28 27 27 27 27 25 24 22 21 23 25 25 25 24 23 22 22 21 20 19 18 17 16 14 12 10 8 6
27 28 28 30 30 30 30 30 30 30 29 28 28 28 28 27 26 25 24 23 24 24 25 24 23 22 22 22 21 20 19 18 17 17 15 12 10 8
26 28 28 30 32 32 32 32 32 32 31 31 31 31 30 29 28 27 26 25 25 25 25 24 24 23 23 22 22 21 20 19 19 19 18 16 13 12
25 26 28 30 32 33 34 34 34 34 34 33 34 33 32 30 30 30 30 29 28 27 26 26 26 25 25 24 23 22 21 21 21 21 21 19 18 17
23 24 27 30 31 33 34 35 36 36 37 36 35 34 33 33 33 33 33 33 31 30 30 30 29 28 27 26 25 24 23 23 24 24 24 23 22 21
23 23 24 27 29 30 31 32 33 35 37 37 36 35 35 35 35 35 35 34 32 32 33 34 33 31 29 28 27 27 26 26 26 27 26 26 25 25
23 23 23 24 25 25 26 28 29 30 32 32 33 34 35 36 36 36 37 36 35 34 35 36 35 33 31 30 30 30 29 29 28 28 28 28 28 28
22 22 22 21 21 21 21 23 25 25 26 27 29 31 33 35 36 37 37 37 36 35 35 36 35 34 33 32 33 32 31 31 30 29 29 30 30 31
22 22 21 20 20 19 20 21 23 25 28 29 30 32 34 35 37 38 38 37 37 37 37 37 36 36 35 35 35 34 32 32 31 31 31 32 33 34
21 22 22 22 21 21 21 22 23 24 26 28 30 31 33 34 35 36 36 37 37 39 40 40 40 38 38 37 36 33 32 33 34 34 33 34 35 37
20 20 21 22 23 23 24 25 26 27 28 28 29 29 30 31 32 33 35 36 37 39 42 43 43 42 41 38 35 33 33 34 34 35 35 36 37 39
19 20 21 23 24 26 27 28 29 30 30 30 30 30 29 29 29 31 32 34 37 41 44 44 42 40 38 36 33 33 33 33 34 35 37 38 39 40
18 19 21 23 25 26 28 30 31 32 32 32 32 31 30 29 30 30 30 31 33 37 39 39 36 34 32 31 31 32 33 33 34 36 38 40 41 43
15 17 18 19 21 22 24 26 28 30 31 32 32 32 31 30 30 30 30 29 29 31 32 32 32 32 32 31 32 33 34 35 36 38 40 42 44 46

GEFSNE_500_meanwind_018.txt.gz
Wind_Speed
35 35 33 32 31 28 26 23 21 19 19 19 20 21 21 21 20 20 20 20 19 19 19 19 19 20 21 21 22 22 22 22 22 23 24 24 24 24
36 36 35 34 32 31 29 27 25 24 22 21 20 21 21 21 21 20 21 21 21 20 20 20 21 21 21 21 22 22 22 23 23 24 25 25 25 24
35 36 36 35 33 33 31 30 29 28 26 25 24 23 23 22 22 21 20 21 21 21 21 21 21 21 22 21 21 21 22 23 24 25 25 25 23 23
33 33 34 34 32 33 33 32 32 31 30 28 27 26 25 25 25 24 23 23 23 23 23 22 22 22 21 21 20 21 22 23 24 24 24 23 21 21
32 32 32 33 33 34 35 34 34 34 33 33 31 29 28 27 27 27 26 25 25 25 24 23 22 22 21 20 20 21 22 23 23 23 22 21 20 21
30 32 33 34 35 35 35 35 35 35 34 34 34 33 31 29 28 28 27 26 26 26 25 24 23 22 21 20 21 21 21 22 22 21 20 20 20 21
30 31 32 33 35 35 35 36 36 36 36 36 36 36 35 33 32 30 28 27 27 26 26 25 24 23 22 21 21 21 21 21 21 20 20 20 20 20
28 30 31 32 33 34 35 36 36 36 36 36 36 37 36 36 35 32 30 28 28 27 27 25 25 24 23 23 22 22 21 21 21 21 20 20 20 19
27 27 28 29 31 32 34 35 35 35 35 35 34 35 36 36 35 32 30 28 27 27 27 25 25 24 24 24 23 22 22 21 21 22 21 21 20 19
26 26 26 26 26 29 31 32 32 32 33 34 34 35 35 35 33 30 29 29 29 28 27 25 25 25 25 24 24 23 22 22 22 22 22 21 20 19
25 25 25 25 25 25 27 29 31 31 32 33 35 35 35 35 33 31 31 31 31 29 27 26 25 24 24 24 24 23 23 22 22 22 22 21 21 20
25 25 24 24 24 25 26 28 30 31 31 32 34 35 34 33 33 32 32 33 33 31 28 27 26 25 24 24 23 23 22 22 22 22 22 22 22 21
25 24 24 23 22 23 25 27 28 29 31 32 33 34 33 32 32 32 33 34 33 31 29 28 28 27 26 25 24 24 23 23 22 21 22 22 22 22
25 24 23 22 22 23 24 25 26 27 28 30 31 32 33 33 33 34 34 35 34 32 31 30 30 29 28 27 26 26 25 25 24 23 22 22 23 23
25 24 22 22 22 22 22 23 25 26 27 28 30 32 33 34 35 36 37 37 36 35 33 32 32 31 31 30 29 29 29 28 26 25 24 23 24 24
24 23 22 22 22 21 21 21 22 23 24 26 29 31 32 34 35 36 38 39 39 38 37 35 35 34 33 32 31 30 30 30 29 28 27 27 26 26
22 22 22 22 21 21 21 21 21 20 21 24 27 29 32 35 37 37 38 40 41 40 38 37 36 35 34 33 33 33 32 32 32 31 31 30 30 30
20 20 20 20 20 21 21 21 21 20 20 22 24 28 31 34 35 37 38 39 40 40 40 39 38 36 35 34 34 34 33 32 32 32 33 33 33 33
17 18 18 19 19 20 21 21 21 22 22 22 23 25 27 29 32 33 35 37 37 37 37 37 37 36 35 34 34 35 34 33 33 34 35 35 36 36
15 16 17 18 19 20 21 22 22 23 23 24 24 25 26 28 29 30 32 34 35 36 37 37 36 36 36 36 36 36 36 35 36 36 37 37 38 39
12 14 16 17 19 20 21 22 23 23 24 25 26 27 28 29 30 31 32 33 34 35 35 36 37 37 37 37 36 35 35 37 38 39 39 39 39 40
11 13 14 16 18 19 20 22 23 24 25 26 27 28 30 31 32 33 34 34 34 34 34 35 35 36 36 36 36 36 37 38 38 38 39 39 39 39
9 11 12 14 15 17 18 20 21 23 24 24 26 27 28 30 32 33 34 35 35 36 35 35 34 34 34 34 35 36 37 38 38 36 36 36 36 36

GEFSNE_500_meanwind_024.txt.gz
Wind_Speed
24 25 26 29 30 29 28 26 23 21 18 17 17 16 16 16 16 16 16 16 17 17 17 17 17 18 18 18 19 19 20 21 21 21 21 21 21 21
23 24 27 29 31 32 31 30 28 25 22 20 19 18 17 17 17 18 18 18 18 18 19 19 19 18 18 18 19 19 20 21 21 22 22 22 22 22
22 24 26 29 30 32 32 32 31 29 26 24 22 21 19 18 18 17 18 18 19 19 19 20 19 19 19 19 20 20 21 22 22 23 23 23 23 23
20 21 22 26 29 31 32 32 32 31 29 27 25 24 23 22 21 20 19 19 19 19 19 20 20 20 20 20 21 21 22 22 22 23 23 24 24 24
20 19 20 23 26 30 31 32 33 33 31 29 28 27 25 25 24 23 22 21 20 20 21 21 21 22 22 22 22 22 23 23 23 23 24 24 25 25
21 21 21 22 24 26 28 30 32 33 32 31 29 28 28 27 27 28 26 24 23 23 23 24 24 24 24 24 24 24 24 24 24 24 24 24 25 25
23 23 22 21 23 24 26 28 30 31 31 31 30 30 30 30 29 30 29 28 26 26 26 25 25 26 26 25 25 25 24 24 25 24 24 24 24 24
23 23 23 22 23 24 25 26 28 30 31 31 31 31 30 31 30 29 29 29 29 29 29 28 27 27 27 27 26 25 25 25 25 25 25 24 24 23
23 23 23 23 22 23 24 25 26 28 30 31 31 31 31 30 31 30 30 30 31 31 31 31 30 29 29 28 27 27 26 26 26 25 25 25 24 24
24 24 24 23 23 22 23 25 25 26 27 28 30 31 31 31 31 31 31 31 30 31 33 33 32 30 30 29 28 27 27 27 26 26 26 25 25 24
25 24 24 24 24 24 23 24 24 25 26 27 28 30 32 32 32 32 32 32 30 31 34 33 32 31 30 30 29 28 28 27 27 26 26 26 25 25
26 26 25 25 24 24 24 23 24 25 25 25 26 28 30 31 32 32 32 33 32 32 33 33 32 32 30 31 31 29 28 27 26 26 26 26 26 26
27 26 25 25 25 24 24 23 23 24 25 25 25 26 28 29 30 31 32 33 33 33 34 34 32 33 32 32 32 31 29 28 27 27 26 26 26 26
26 25 25 24 24 23 23 23 23 23 24 24 25 25 26 27 28 30 31 33 35 35 35 35 34 35 35 34 34 33 32 31 29 29 28 28 28 28
25 24 23 23 23 22 22 22 22 23 23 23 24 25 26 26 27 28 29 31 32 34 35 36 36 37 37 36 36 35 34 33 32 31 31 30 30 30
25 24 23 22 21 21 21 21 21 22 22 21 22 23 23 24 26 26 27 28 31 33 34 35 37 38 39 39 38 37 36 36 35 34 34 34 34 33
23 22 22 22 22 21 21 21 21 21 21 21 21 21 22 22 23 24 26 27 29 31 34 36 38 39 39 40 40 39 39 39 39 38 37 36 36 36
19 19 19 20 20 20 21 21 21 21 21 21 22 22 22 22 23 24 26 27 29 32 35 38 39 39 40 41 41 42 42 42 42 42 40 39 39 39
14 15 16 17 18 18 18 19 20 20 21 21 22 22 23 24 25 26 27 28 29 31 33 35 37 39 40 41 43 44 44 44 44 43 42 42 42 41
9 11 12 13 15 16 17 18 18 19 20 21 22 23 24 25 26 27 28 29 30 31 32 34 35 38 39 40 42 43 44 44 43 43 43 43 43 42
5 7 9 10 11 13 15 16 18 19 20 22 23 25 26 26 27 28 29 30 31 32 33 34 35 36 37 38 39 40 41 42 43 43 43 43 42 41
3 5 6 8 10 12 13 15 17 19 20 22 24 25 26 27 28 29 30 31 32 33 34 35 35 36 37 37 37 38 39 41 41 42 42 42 42 41
3 4 5 7 9 11 12 14 16 17 19 21 23 24 25 27 28 29 30 31 32 33 34 35 35 36 36 36 36 37 37 37 37 38 39 40 41 41

GEFSNE_500_meanwind_030.txt.gz
Wind_Speed
22 23 23 21 21 23 25 26 25 24 23 21 20 18 17 16 16 16 17 17 18 18 18 18 18 18 18 18 19 19 20 20 20 21 21 21 21 21
19 19 20 21 22 23 24 26 27 27 26 25 23 22 20 19 18 18 18 18 18 18 18 18 18 18 18 18 18 19 19 20 20 21 21 21 22 22
18 18 18 19 21 22 25 27 28 29 29 28 27 25 23 22 21 20 20 20 20 19 19 19 19 20 20 20 19 20 20 20 21 21 21 21 21 22
17 16 17 18 20 21 23 27 29 30 30 30 30 29 27 25 23 22 22 21 21 21 21 21 21 21 21 21 21 21 21 21 21 21 21 21 22 22
17 17 17 17 18 19 21 24 27 29 31 32 33 32 31 29 27 25 24 24 23 22 22 22 22 22 22 22 22 21 21 21 21 21 21 22 22 22
18 18 18 18 19 19 19 21 25 28 30 32 34 34 34 33 31 29 28 27 26 24 24 24 24 24 24 23 23 23 23 23 23 23 23 23 23 23
20 19 19 18 19 20 20 21 23 26 28 31 33 34 34 34 34 34 32 30 28 28 28 28 26 26 26 26 25 25 25 25 25 25 25 25 25 25
21 20 20 20 20 20 21 21 22 24 25 28 31 33 34 34 35 36 35 32 31 32 31 30 30 30 29 29 28 28 28 27 27 27 27 27 27 27
22 22 22 21 20 20 21 21 21 22 24 25 27 30 32 34 35 35 35 34 34 35 34 33 33 33 33 32 31 31 31 30 30 30 30 30 30 30
21 21 22 22 21 21 21 21 21 22 24 26 27 27 29 32 34 35 36 35 35 34 34 35 35 34 34 33 33 33 33 33 33 32 32 32 32 32
21 21 22 22 22 22 22 22 22 22 22 23 25 27 27 29 31 33 34 34 34 35 35 35 36 36 35 35 35 34 35 35 35 35 35 34 34 34
22 22 23 23 23 23 23 22 22 22 22 22 24 25 26 27 29 30 32 33 34 35 36 35 36 37 36 36 37 36 36 36 36 36 36 36 35 35
23 23 23 24 24 24 23 23 23 23 23 23 24 25 25 27 28 30 31 32 33 34 36 36 36 36 37 37 37 37 37 37 37 37 37 36 36 36
23 23 24 24 23 23 23 24 24 24 24 24 25 26 26 27 28 30 31 32 33 34 36 37 37 37 37 37 38 39 38 38 38 39 39 38 38 37
23 23 22 23 23 23 22 23 23 24 24 25 25 26 27 28 28 29 30 31 32 33 34 36 37 38 38 38 39 39 39 39 39 40 40 40 40 39
23 23 22 22 22 22 22 22 22 23 23 24 24 25 26 27 28 28 29 30 31 32 34 34 35 37 38 38 39 40 41 41 42 42 42 42 42 42
20 21 21 21 21 21 21 21 21 22 22 23 23 24 25 26 27 27 27 29 30 32 32 33 34 35 36 37 38 39 40 41 42 43 43 43 44 44
15 16 17 18 18 19 20 20 20 21 22 22 23 24 25 26 27 28 28 29 30 31 32 33 34 35 36 37 38 39 41 42 44 45 46 46 46 46
9 10 12 14 15 16 18 19 20 20 21 22 23 24 25 26 27 28 30 30 31 32 33 34 35 36 37 38 39 40 42 44 44 45 47 47 47 47
3 4 6 9 11 12 14 16 17 19 20 21 23 24 26 27 28 29 30 31 32 33 34 35 36 36 38 39 40 41 42 43 43 44 45 45 46 47
2 2 3 5 7 9 11 13 15 17 19 20 22 23 25 26 28 29 31 32 33 34 35 36 38 38 39 39 39 40 42 42 42 42 43 44 45 45
5 4 4 4 5 6 8 10 12 14 15 17 19 22 23 25 27 29 30 32 33 34 35 36 37 38 39 39 40 40 41 41 42 43 43 43 44 44
8 7 6 5 5 6 7 8 10 11 13 15 18 20 22 24 26 27 29 30 32 33 34 35 36 37 38 39 39 40 41 41 42 42 42 43 43 43

GEFSNE_500_meanwind_036.txt.gz
Wind_Speed
25 25 26 28 29 28 27 26 26 26 26 26 25 23 21 20 20 20 21 22 22 23 23 23 23 23 23 23 23 23 23 24 24 24 23 23 23 22
24 24 24 25 26 26 27 27 26 27 27 27 27 26 23 22 21 20 20 21 22 22 22 23 23 24 24 24 24 24 24 25 25 25 25 25 24 24
22 22 22 21 21 22 25 27 27 27 27 27 28 28 26 25 23 22 21 21 21 21 22 22 23 23 24 24 24 24 24 24 24 24 24 24 24 24
22 21 21 19 19 19 21 24 25 26 27 28 29 29 28 28 26 25 24 23 22 22 22 22 22 23 23 23 23 24 24 24 24 24 24 24 24 25
22 21 21 20 19 19 19 19 22 24 25 28 30 30 30 30 29 28 28 27 25 24 23 23 23 23 23 24 24 24 25 25 25 25 25 25 25 25
22 22 22 21 20 19 19 19 20 21 23 26 28 30 31 31 32 31 31 30 28 26 26 25 25 25 25 25 26 26 26 26 26 26 27 26 26 26
22 22 22 21 21 20 20 20 20 20 21 23 27 30 32 32 33 34 34 33 31 30 29 29 27 26 27 27 27 27 28 28 28 28 28 28 28 28
22 22 23 22 22 21 21 21 20 21 21 21 21 25 30 32 33 34 35 35 35 34 33 32 30 30 30 29 29 29 29 29 29 29 30 30 30 30
22 22 22 23 23 22 22 21 21 21 22 22 22 23 26 28 30 33 35 36 36 37 36 35 34 34 33 32 31 31 31 31 31 31 31 32 32 32
22 22 22 23 23 23 22 22 22 22 22 23 24 24 24 26 28 30 32 34 36 38 38 38 37 37 37 35 34 34 34 34 34 34 34 34 34 34
21 22 22 22 22 23 23 23 22 22 22 23 24 24 24 25 27 28 30 32 35 36 37 38 39 40 39 38 37 37 37 36 36 36 36 36 36 36
21 21 22 21 22 22 22 22 22 22 23 23 24 24 25 26 27 28 29 30 32 34 36 37 38 39 39 39 39 38 38 38 38 38 38 38 38 38
22 22 22 22 22 22 22 22 22 22 22 23 24 24 25 26 27 28 29 30 30 31 33 34 36 38 38 38 39 40 39 39 39 39 39 39 39 39
22 22 22 22 21 22 22 22 22 22 22 23 24 24 25 25 26 27 28 28 29 31 32 33 34 35 36 37 37 38 39 39 40 40 40 40 40 40
20 21 21 22 22 21 21 22 22 22 23 23 24 24 25 26 26 27 28 29 30 30 31 33 33 34 35 36 36 37 38 39 40 40 41 41 41 41
17 18 19 20 20 20 21 21 22 22 22 22 22 23 24 25 26 27 27 28 29 30 31 31 32 33 35 36 37 38 39 40 40 41 42 42 42 42
13 14 15 17 18 19 19 20 20 21 21 22 22 22 23 24 25 26 26 27 29 30 31 32 32 33 34 35 36 37 39 40 40 41 41 41 42 43
8 10 11 13 14 15 16 17 18 19 19 20 20 21 22 22 23 24 26 27 28 29 30 31 32 33 34 36 36 37 37 38 39 40 41 41 42 43
4 5 6 8 9 10 12 13 14 15 17 18 18 19 20 21 22 24 25 26 27 28 30 31 32 33 34 36 37 39 39 40 40 41 42 42 42 42
5 4 3 3 3 5 6 8 9 11 13 14 15 17 18 20 21 23 24 26 27 29 30 32 33 34 35 35 36 38 39 40 40 41 41 42 43 43
9 8 7 7 5 4 4 5 7 8 9 11 12 14 16 18 20 21 23 25 26 28 30 31 33 34 35 36 37 38 39 40 41 41 41 42 42 43
12 11 10 9 9 8 7 7 8 8 9 10 11 13 15 16 18 20 21 23 25 26 28 30 32 33 34 35 36 37 38 39 40 41 42 42 42 42
15 14 13 13 12 11 11 10 10 10 11 11 12 13 14 16 17 19 21 22 24 26 27 28 30 31 32 33 34 35 36 37 38 39 40 41 41 42

GEFSNE_500_meanwind_042.txt.gz
Wind_Speed
21 21 22 22 23 23 23 24 24 26 26 27 27 28 27 26 25 24 24 24 24 25 26 26 25 25 25 25 25 25 25 26 26 26 25 25 25 24
21 22 22 22 22 22 23 24 24 25 26 27 27 27 28 27 26 25 24 23 24 25 25 25 25 25 25 25 25 25 25 25 25 26 26 26 26 26
21 22 22 22 22 22 22 23 23 23 24 26 26 26 27 28 27 26 25 24 24 24 25 25 25 25 25 25 25 26 25 25 25 26 26 27 27 27
21 21 21 21 21 21 21 21 22 21 22 24 25 26 27 28 28 28 27 26 25 25 25 25 25 25 25 25 25 25 25 25 26 26 26 27 27 27
21 21 21 22 21 22 21 21 21 21 22 23 24 25 27 28 27 29 29 29 28 26 26 25 25 24 24 24 24 25 25 25 25 26 26 26 27 27
21 21 21 22 22 22 21 21 21 21 21 21 22 23 25 27 28 28 30 31 31 29 28 27 26 25 25 24 25 25 25 25 25 25 26 26 27 27
21 21 20 21 22 22 22 22 21 22 22 21 21 22 24 26 28 29 30 32 32 31 31 30 28 27 27 26 26 26 26 26 26 26 26 27 27 28
21 21 21 21 21 22 22 22 21 21 21 21 22 22 23 24 25 27 29 32 33 33 32 32 31 31 31 30 29 29 28 28 28 28 28 29 29 29
21 21 21 21 21 22 22 22 22 22 22 22 22 21 21 22 22 23 26 28 31 32 33 34 34 34 34 33 32 32 31 31 31 31 31 31 31 31
21 21 22 22 21 21 21 21 22 22 22 22 23 23 22 22 23 23 23 25 27 30 32 34 35 36 37 36 36 35 35 35 35 35 34 34 34 34
22 22 22 21 21 21 21 21 21 22 22 23 23 22 22 22 22 23 24 24 25 28 30 31 33 35 36 37 38 38 39 39 38 38 38 38 38 38
22 21 21 21 20 20 20 20 21 21 21 22 22 22 22 22 22 22 23 24 24 26 28 29 31 34 35 36 37 38 39 40 41 41 41 41 41 41
21 21 20 20 21 20 20 20 20 20 20 21 21 21 21 21 22 22 23 24 25 26 27 28 29 31 33 34 35 36 38 39 40 41 42 42 43 43
19 19 19 20 20 20 20 20 20 20 19 20 20 20 21 21 21 22 23 24 25 26 27 28 29 30 31 32 33 35 36 37 38 39 40 41 43 44
16 17 17 18 19 18 19 19 19 19 19 20 20 20 21 21 21 22 23 24 25 26 27 28 29 29 30 32 33 34 35 36 37 38 39 40 41 43
13 13 14 15 15 16 16 16 17 17 17 18 18 19 20 20 21 21 22 23 24 25 27 28 29 30 31 32 33 34 36 37 38 39 39 40 41 42
9 10 11 11 12 12 13 13 14 15 15 16 16 17 18 19 20 21 22 23 24 25 26 27 28 29 31 32 34 35 36 36 37 39 40 41 42 43
5 5 6 7 7 8 9 9 10 11 12 13 14 15 16 18 19 20 21 22 23 24 26 27 29 30 31 33 35 36 37 38 39 40 41 42 43 44
4 3 3 3 3 3 4 5 6 7 8 9 10 12 13 15 16 17 19 20 22 24 25 27 28 29 31 33 34 36 38 39 40 41 42 43 44 45
7 7 6 6 5 3 3 2 3 4 5 6 7 9 10 12 14 15 17 19 20 22 24 25 27 28 30 32 33 35 37 38 39 40 41 43 44 44
13 11 10 9 8 7 6 6 5 5 5 5 6 7 9 10 11 12 14 16 18 19 21 23 24 26 27 29 30 32 34 36 37 38 40 41 42 43
16 15 14 13 12 11 10 9 9 8 8 7 7 7 8 9 10 11 12 14 15 17 18 20 21 23 24 26 28 29 31 33 35 36 37 38 39 40
17 17 16 15 14 13 13 12 11 11 10 10 9 9 9 9 9 10 11 12 13 15 16 17 18 20 21 23 24 26 27 29 30 32 33 34 36 37

GEFSNE_500_meanwind_048.txt.gz
Wind_Speed
22 22 22 22 23 23 23 22 22 22 23 23 23 23 24 24 23 24 25 25 25 25 25 24 24 25 26 26 26 26 26 26 25 25 26 26 26 26
22 22 22 22 23 23 23 23 23 22 23 23 24 23 23 24 24 25 25 26 26 26 25 25 24 24 25 25 26 25 25 25 25 25 25 25 25 25
23 22 22 23 23 23 24 24 24 24 23 24 24 24 23 23 23 24 25 25 26 26 26 25 25 25 25 25 25 25 25 25 25 25 25 25 25 25
22 23 23 24 24 24 24 24 24 24 24 24 24 24 23 23 23 22 23 25 26 26 26 25 24 24 25 25 25 25 25 25 25 25 25 25 25 25
22 22 23 23 23 24 24 24 24 24 24 23 23 23 23 22 22 23 23 24 25 26 26 26 25 24 24 24 25 25 25 25 25 25 25 26 26 26
21 22 22 22 22 22 23 23 23 23 23 22 23 23 23 22 23 23 22 22 24 25 26 26 26 25 25 25 25 25 25 24 24 25 25 25 25 26
21 21 21 22 22 22 22 22 22 22 23 22 22 23 23 22 22 22 22 22 23 24 26 27 26 26 26 26 26 26 25 25 25 25 25 25 25 25
20 21 21 21 21 21 21 21 21 22 22 22 22 22 22 22 21 21 21 20 20 22 24 25 26 27 27 28 28 28 27 27 27 27 27 27 27 27
20 20 20 20 20 21 21 21 21 21 21 21 21 21 21 21 20 20 20 19 19 20 21 22 24 26 27 28 29 29 29 29 30 29 29 29 29 29
20 19 19 19 20 20 20 20 21 20 20 20 20 20 20 20 20 19 19 19 18 19 20 21 23 25 27 29 29 30 31 31 32 32 33 33 33 32
19 19 19 19 20 20 19 19 18 18 18 19 19 19 19 19 19 19 18 18 18 18 18 18 19 21 23 26 27 29 31 32 33 33 34 35 35 36
17 18 18 19 19 19 18 17 17 17 17 17 17 17 17 18 18 17 17 17 17 18 18 18 19 20 21 21 23 26 28 29 30 31 32 33 35 36
15 15 16 17 17 17 17 16 17 17 17 17 16 16 16 16 16 16 16 16 16 17 17 18 18 19 20 22 22 23 25 26 29 30 31 33 35 36
11 12 12 13 14 14 14 15 16 16 16 16 16 16 15 15 15 15 15 16 16 17 17 18 18 19 20 21 22 23 24 26 27 28 30 31 33 35
8 9 10 10 11 12 12 13 13 14 15 15 14 15 15 15 15 15 15 15 16 17 18 19 19 20 20 21 22 24 25 26 28 29 30 32 33 35
5 6 6 6 7 8 9 10 11 11 12 12 12 13 13 14 14 14 14 15 16 17 17 18 19 20 21 22 24 25 26 27 29 30 31 33 34 36
3 3 3 4 5 6 7 7 8 9 9 9 9 10 10 11 12 12 13 14 15 16 17 18 20 21 22 22 24 25 26 27 28 29 31 32 34 35
4 4 3 3 3 3 4 4 4 5 5 6 7 7 8 9 9 10 11 12 13 15 16 17 18 20 21 21 23 24 25 27 28 29 31 32 34 36
9 7 6 6 5 5 5 4 3 3 4 4 5 5 6 7 8 9 10 11 12 14 15 16 17 19 20 21 22 24 25 26 27 29 31 32 34 36
13 12 10 10 9 9 8 7 6 6 5 5 5 5 6 6 7 8 9 10 11 13 14 15 17 18 19 20 21 23 24 25 27 28 29 31 32 34
17 16 15 14 13 12 12 11 10 9 9 9 8 8 8 8 8 8 9 10 11 12 13 14 16 17 17 19 20 22 23 24 25 26 27 29 30 32
18 17 17 16 15 15 14 14 13 12 12 12 11 11 10 10 10 10 10 11 11 12 14 15 16 17 18 19 20 21 22 23 24 25 26 27 28 29
17 17 17 16 16 16 15 15 15 14 13 13 13 13 13 12 12 12 12 12 13 14 15 16 17 18 18 18 20 21 22 23 24 25 25 26 26 27

GEFSNE_500_meanwind_054.txt.gz
Wind_Speed
27 28 27 27 27 27 27 26 24 23 24 24 23 22 22 22 23 24 25 25 25 26 27 27 28 28 28 29 28 28 28 28 28 28 27 27 27 27
26 26 26 26 27 26 25 24 22 23 24 24 23 23 22 23 23 24 25 25 25 26 27 27 28 28 28 29 29 28 28 28 29 29 28 28 28 28
25 25 24 23 23 22 22 22 23 23 24 24 23 23 23 23 24 24 24 25 26 25 26 27 27 28 28 29 29 29 28 29 29 29 29 28 28 28
21 21 21 21 21 21 21 22 23 23 24 24 24 24 23 23 23 23 24 25 25 25 25 25 26 27 28 29 28 28 29 29 29 29 29 29 28 28
19 20 20 20 21 20 21 21 22 23 23 23 23 23 23 23 24 24 24 24 24 24 24 24 25 25 26 28 28 28 28 28 29 29 29 29 29 29
18 18 18 19 19 20 20 21 21 21 22 22 22 22 23 23 24 24 24 24 25 24 24 24 24 25 26 27 28 29 28 29 29 29 29 29 29 29
17 18 18 19 19 19 20 21 21 21 21 22 22 22 23 23 24 24 24 24 24 25 24 24 24 25 26 27 27 28 29 29 29 29 30 30 30 30
18 19 19 19 19 20 20 21 21 21 21 21 22 22 23 23 23 24 24 24 24 24 23 23 23 24 24 25 26 28 28 28 29 29 30 30 31 31
18 19 20 20 20 20 21 21 21 22 22 22 22 22 22 23 23 23 23 23 23 23 23 23 23 23 23 23 24 25 26 27 29 30 30 31 32 33
18 19 19 19 19 20 20 20 20 20 21 21 21 21 21 21 21 21 21 21 21 21 21 21 21 22 22 22 23 23 24 26 28 29 30 31 32 33
18 18 18 18 18 18 19 19 19 19 19 19 19 19 19 19 19 19 19 19 19 19 20 20 20 20 20 20 20 22 23 25 27 28 30 31 32 33
16 17 18 18 17 17 17 17 17 17 18 18 18 18 18 17 17 17 17 17 18 18 18 18 19 19 19 20 20 21 22 23 24 26 28 30 31 33
13 14 15 16 16 16 16 16 16 16 16 16 16 16 16 16 16 16 16 15 16 16 16 16 16 17 18 18 19 20 21 22 23 24 26 27 29 32
10 11 12 13 14 14 14 14 14 15 15 15 15 15 15 15 14 14 14 14 15 15 15 15 15 16 17 17 18 19 20 22 23 24 26 28 29 30
6 7 7 8 9 10 11 11 11 12 12 13 13 13 13 13 13 13 13 13 13 13 13 14 14 14 15 16 17 18 19 20 21 22 24 25 27 29
2 3 3 4 5 6 7 8 8 9 10 10 10 10 10 9 9 9 9 9 10 10 11 11 12 14 15 16 17 17 18 19 20 21 23 24 25 27
3 2 1 1 1 2 3 4 5 5 6 7 7 7 7 7 7 7 7 8 8 8 9 10 11 13 14 15 16 16 17 18 19 21 22 23 25 27
8 7 6 4 3 2 2 1 1 2 3 3 4 4 5 5 5 5 5 5 6 7 8 9 10 11 12 13 14 15 16 17 18 20 21 22 24 25
11 10 9 8 7 6 6 5 4 4 3 2 1 1 0 0 1 2 2 3 5 6 7 8 9 10 11 12 12 13 14 15 17 19 20 21 22 24
14 13 12 12 11 10 10 9 9 8 8 7 6 5 5 4 3 3 3 3 4 5 6 7 8 10 11 11 12 13 14 15 16 18 19 20 21 22
17 16 15 15 14 13 13 12 12 12 11 11 10 9 8 7 6 5 5 5 5 6 7 8 9 10 11 12 12 13 15 16 16 17 19 20 21 22
16 16 16 15 15 15 14 14 13 13 13 12 12 11 11 10 9 8 8 8 7 7 8 8 9 11 11 12 13 14 15 16 17 19 20 21 22 23
16 16 15 15 15 15 15 14 14 13 13 13 13 12 12 11 11 10 10 10 9 9 9 10 10 11 12 13 14 15 16 17 18 19 20 21 22 23

GEFSNE_500_meanwind_060.txt.gz
Wind_Speed
30 30 29 29 29 29 29 29 30 30 31 30 30 29 29 27 26 25 24 23 23 22 22 22 23 23 24 26 26 27 28 28 29 29 29 29 30 30
29 29 29 29 29 28 27 28 28 28 28 28 27 28 27 26 24 24 24 23 23 23 24 24 24 24 25 25 26 26 27 28 29 29 30 30 30 30
26 27 27 28 28 28 27 27 27 27 26 26 26 26 25 25 24 24 24 24 24 24 24 25 25 25 25 26 26 27 27 28 28 29 30 30 30 31
23 23 24 25 26 26 26 26 26 25 25 24 23 24 24 24 24 24 24 24 24 25 25 26 26 25 25 26 26 27 27 28 28 29 30 30 30 31
21 21 21 21 22 22 22 23 23 23 22 22 22 23 23 23 23 24 24 25 25 26 26 26 26 26 26 26 26 26 27 27 28 29 30 30 30 31
18 17 18 18 19 20 20 19 20 20 20 20 21 21 21 22 23 23 24 24 25 25 26 26 26 26 26 26 26 26 26 27 28 28 29 29 30 30
14 15 15 16 17 17 17 18 18 19 19 20 20 20 21 21 22 22 22 23 24 24 25 26 27 27 27 27 26 27 26 27 28 28 28 28 29 29
12 12 13 13 14 15 15 16 17 18 18 18 19 19 19 20 21 21 22 22 23 24 24 25 25 26 26 26 26 26 26 27 27 27 27 27 28 29
11 11 12 12 13 14 15 15 16 16 17 17 18 18 19 19 20 20 21 22 22 23 23 23 23 24 25 25 24 24 25 25 26 26 26 26 26 26
11 11 12 12 13 14 14 15 15 15 15 16 17 17 17 18 18 19 19 19 20 20 21 21 21 21 22 22 22 23 23 24 24 25 24 25 25 26
9 10 11 12 12 13 13 14 14 13 14 15 15 16 16 16 17 17 17 17 17 17 17 18 18 18 19 19 19 20 20 21 21 22 23 24 24 24
7 7 9 10 10 11 11 11 12 12 12 13 14 14 14 14 14 14 15 15 15 15 15 15 16 16 16 16 17 17 18 19 19 20 22 22 22 23
6 6 6 7 7 8 9 10 10 11 11 11 12 12 12 12 12 12 12 13 13 13 13 13 14 14 14 14 15 16 16 16 17 17 18 19 20 20
3 3 4 5 5 6 8 8 9 10 10 10 10 10 10 9 9 10 10 10 11 11 11 11 11 12 12 12 12 13 14 14 14 15 15 16 17 18
2 2 2 2 3 4 5 6 7 7 8 8 7 7 7 8 8 8 8 9 9 9 9 9 9 9 9 10 10 11 12 12 13 13 13 15 15 16
4 3 2 2 2 2 3 4 4 5 5 5 6 6 7 6 6 6 6 6 6 6 6 7 7 8 8 8 9 10 10 11 11 12 12 13 15 16
8 6 5 4 3 2 1 0 1 2 3 3 4 4 4 4 4 4 3 4 4 4 4 5 6 6 7 7 8 9 10 10 10 11 12 13 15 16
11 10 9 8 7 5 4 3 2 2 1 0 1 2 2 2 2 2 2 2 2 2 3 4 5 6 7 7 8 8 9 11 12 12 13 14 14 15
13 12 12 11 10 9 7 6 5 5 4 4 3 3 2 2 2 1 1 1 1 2 2 3 4 5 6 7 8 9 10 10 11 12 13 14 15 16
15 14 13 13 12 12 11 10 9 9 8 7 6 6 5 5 4 3 3 2 2 3 3 4 5 6 7 8 8 9 9 10 12 13 14 15 16 17
16 16 15 15 14 13 13 12 12 12 11 11 10 9 8 7 7 6 5 5 5 5 5 6 6 7 8 9 9 10 11 11 12 14 15 16 17 18
15 15 15 15 15 14 14 13 13 13 13 12 11 11 10 9 9 8 7 7 6 6 6 7 8 9 9 10 10 11 12 13 14 15 16 18 19 20
14 14 14 14 14 14 14 14 13 13 13 13 12 11 11 10 9 9 8 8 8 7 7 8 8 9 10 11 12 13 14 15 16 17 18 19 20 21

GEFSNE_500_meanwind_066.txt.gz
Wind_Speed
31 31 31 32 34 34 33 33 33 33 33 33 33 32 33 34 34 33 33 32 31 29 28 28 28 27 26 25 25 25 26 26 26 27 27 27 28 29
31 31 31 31 32 32 32 32 32 32 32 32 32 32 32 33 34 34 34 34 33 31 30 29 28 27 26 26 25 25 25 26 26 27 27 28 28 30
30 30 30 30 32 32 32 31 32 32 32 32 32 32 32 32 32 33 33 32 30 29 28 27 27 26 25 25 25 25 26 27 27 28 28 28 29 30
29 30 30 29 30 30 30 30 31 31 31 31 31 30 30 30 31 31 30 29 28 27 26 26 26 26 25 25 25 26 26 27 27 28 28 29 30 31
26 27 28 29 29 29 30 31 31 30 30 31 30 30 30 30 30 29 28 27 26 25 25 25 25 25 25 25 25 26 26 27 27 28 28 28 29 30
23 24 25 26 26 27 28 28 29 29 29 29 29 29 29 29 29 28 26 26 25 24 24 24 23 24 24 25 26 26 26 27 28 28 28 28 29 29
20 20 22 22 23 24 25 25 25 25 25 25 25 25 24 24 24 23 22 22 23 23 23 23 23 24 24 24 25 26 26 27 27 28 28 28 28 29
15 16 16 18 19 20 20 20 21 21 21 21 22 21 20 20 19 19 20 20 21 21 22 22 23 23 24 24 25 26 26 26 26 27 27 28 28 28
12 12 13 13 14 15 16 17 17 16 16 17 17 17 17 18 18 19 19 20 21 21 21 21 22 22 23 23 23 24 24 25 25 26 26 27 27 27
9 9 10 11 11 11 12 13 14 14 14 15 15 16 16 17 18 18 19 19 19 19 20 20 20 21 21 21 21 22 23 23 23 24 24 25 26 26
7 8 8 9 10 10 11 12 13 13 12 12 13 13 14 15 15 16 16 16 17 17 17 18 18 18 19 19 20 20 20 21 21 22 22 21 21 21
5 6 7 7 8 8 9 10 11 12 12 12 13 13 13 13 14 14 14 14 14 14 15 15 15 16 17 17 18 18 17 18 18 18 18 18 18 18
3 4 5 6 7 7 8 8 10 10 11 11 12 12 12 12 12 12 13 13 13 13 13 13 14 14 15 15 15 15 15 15 16 16 16 16 16 16
1 1 2 4 4 5 6 7 8 9 9 10 10 10 11 11 11 11 11 11 11 11 11 11 12 12 12 12 12 12 12 12 12 12 13 13 13 14
2 1 1 2 3 4 4 5 5 6 7 8 8 8 9 9 9 9 10 10 10 10 10 9 9 9 10 10 10 9 9 9 9 9 10 10 11 12
5 3 2 1 2 3 4 4 4 4 5 6 6 7 7 7 7 7 7 7 8 8 7 7 7 7 6 6 7 7 8 8 9 9 10 10 11 12
8 7 5 4 3 3 3 3 3 3 4 4 5 5 6 6 6 5 5 5 5 5 5 5 5 5 5 5 6 6 7 7 8 9 10 11 11 12
10 9 7 6 5 4 4 3 3 3 3 3 4 4 5 5 5 4 4 4 4 4 4 3 3 3 3 3 4 5 6 6 7 8 9 10 11 11
12 12 11 10 8 7 6 6 5 5 5 4 4 4 4 4 4 4 4 3 3 2 2 2 2 2 2 3 4 4 5 6 7 8 9 10 11 11
14 13 13 12 11 10 9 8 8 7 7 6 6 6 5 5 5 5 4 3 3 2 1 1 0 1 2 3 3 5 6 6 7 8 9 10 11 12
14 14 13 13 12 12 11 10 9 8 8 8 8 7 7 6 6 5 4 3 3 2 2 1 1 2 2 3 4 5 6 7 8 8 10 11 12 13
13 13 12 12 12 12 11 11 10 10 9 9 8 8 7 6 5 5 4 3 3 2 2 2 3 3 3 3 4 5 6 7 8 9 10 11 13 14
12 11 11 11 10 10 10 10 10 10 9 9 8 7 6 6 5 4 4 4 3 3 3 3 3 3 4 4 5 6 7 8 9 10 11 12 13 14

GEFSNE_500_meanwind_072.txt.gz
Wind_Speed
34 33 34 35 35 34 34 33 32 32 32 31 32 32 30 30 29 30 30 31 31 32 32 32 33 33 32 32 32 32 32 32 32 31 31 30 30 29
32 31 32 33 33 34 34 33 33 33 33 32 31 32 32 31 30 30 31 31 31 31 32 33 34 34 34 34 33 33 33 32 32 32 31 30 30 30
28 29 29 30 31 32 33 32 31 31 31 31 30 30 30 30 29 28 29 30 30 30 31 32 33 34 34 33 33 33 33 32 32 31 31 30 30 30
24 25 26 27 28 28 29 29 29 29 28 29 29 28 27 26 26 26 26 28 29 29 29 30 32 33 32 32 32 31 31 31 31 31 30 30 30 31
21 23 24 25 26 26 27 28 28 28 28 28 27 27 27 27 26 26 25 26 27 27 28 29 30 31 31 31 30 29 29 29 30 30 30 30 30 30
19 20 21 22 23 24 25 26 27 27 28 28 28 27 26 25 25 25 25 25 26 26 26 27 27 27 27 27 27 26 26 27 27 27 28 28 29 30
17 19 20 20 21 21 22 23 24 25 26 26 26 26 25 24 24 23 23 23 24 24 23 23 23 24 24 23 23 24 25 24 24 25 25 26 27 28
14 15 16 17 18 19 20 22 22 22 22 23 23 23 23 22 23 23 23 21 21 20 20 21 21 21 21 21 22 22 22 23 23 23 24 24 25 26
11 12 13 15 15 16 17 18 19 20 20 21 20 20 19 20 21 20 20 19 19 18 18 18 18 18 17 17 18 19 20 20 21 21 22 22 23 24
7 8 10 11 12 13 13 14 15 16 17 17 18 17 17 17 16 15 15 15 15 15 14 14 14 15 16 16 17 17 18 18 19 19 20 20 21 22
4 5 5 6 7 8 10 11 13 15 15 14 14 13 13 12 12 12 12 12 12 12 12 12 13 14 15 15 16 16 16 17 18 18 19 19 20 20
2 2 3 2 3 4 6 7 9 10 11 11 11 11 11 10 10 10 10 10 10 11 11 12 13 13 13 14 14 15 15 16 16 16 17 17 17 18
4 2 1 1 1 1 2 4 5 6 7 8 9 9 9 10 9 9 10 10 10 11 11 11 12 12 12 13 13 13 13 14 14 14 14 15 16 16
6 4 3 2 1 1 1 2 3 5 5 6 8 8 9 9 9 9 8 9 9 9 9 10 10 10 10 10 10 10 10 11 12 13 13 14 14 15
7 6 5 4 3 3 2 2 2 3 4 5 6 7 7 8 7 8 8 8 8 8 8 8 8 8 8 8 8 8 9 9 10 11 12 12 13 13
10 9 8 7 5 5 4 4 4 4 4 4 5 5 6 6 6 6 6 6 6 6 6 6 6 6 6 6 6 7 7 8 9 10 10 11 12 12
11 10 9 8 7 7 6 5 5 5 5 5 4 4 4 4 4 4 4 5 4 4 4 4 4 5 5 5 6 6 7 7 8 9 10 10 11 12
12 11 10 9 9 8 8 7 6 6 5 5 4 4 3 3 3 3 3 3 3 3 3 3 3 4 4 5 5 6 6 7 8 8 9 10 11 11
13 12 12 11 10 9 9 8 7 6 6 5 4 4 3 3 2 2 2 2 2 2 2 2 3 3 4 4 5 6 6 7 7 8 9 9 10 11
14 13 12 11 11 10 10 9 8 7 6 5 4 4 3 3 2 2 2 1 1 1 1 2 2 3 3 4 4 5 5 6 6 7 8 9 10 11
14 13 13 12 11 10 9 9 8 7 7 6 5 4 4 3 3 2 2 1 0 1 1 2 2 2 3 3 4 4 5 5 6 7 8 9 10 11
12 12 12 11 11 10 9 9 8 8 7 6 5 4 4 3 2 2 2 1 1 1 1 2 2 2 3 3 4 4 5 6 7 8 9 9 10 10
11 10 10 10 9 9 9 8 7 7 6 5 4 4 3 3 3 2 2 2 1 1 1 2 2 3 3 4 4 5 6 7 7 8 8 9 10 11

GEFSNE_500_meanwind_078.txt.gz
Wind_Speed
34 34 34 33 35 35 35 35 35 35 35 34 34 34 33 32 31 31 30 30 30 30 30 29 29 29 29 29 29 28 28 29 29 29 29 29 30 30
32 31 32 32 34 35 35 35 35 35 34 35 35 33 33 33 33 32 30 29 29 30 30 30 29 29 29 30 29 29 29 29 29 30 30 30 30 30
29 29 30 32 32 34 35 35 35 35 34 34 34 34 33 32 32 31 30 29 30 29 29 29 29 29 29 29 30 30 30 30 30 30 30 30 30 30
27 27 27 29 30 31 32 32 33 33 32 32 31 31 31 30 30 30 28 27 27 28 28 28 28 29 29 30 30 30 30 30 30 30 29 29 30 30
25 25 26 26 27 28 29 30 29 29 29 30 29 28 29 29 29 29 29 28 26 26 27 27 27 27 27 29 29 29 28 29 28 28 29 29 29 29
20 20 21 22 24 24 24 25 26 27 27 28 28 27 27 27 27 27 27 27 27 27 26 27 27 27 27 27 28 28 28 28 28 28 28 29 29 29
17 18 18 19 21 22 23 24 24 25 26 26 26 26 25 26 26 25 26 26 26 26 25 25 25 25 25 25 26 26 26 26 27 28 27 27 27 26
14 15 15 16 17 19 21 22 22 23 25 25 25 25 25 25 25 25 25 25 24 23 23 23 23 23 23 24 24 24 24 24 24 23 23 23 24 24
10 11 12 13 14 15 16 18 20 21 22 23 23 24 23 24 24 24 24 23 23 23 23 23 22 22 21 21 22 22 21 21 21 20 20 20 21 21
6 7 8 9 11 12 14 15 16 18 19 20 21 21 22 22 22 22 22 22 22 21 21 21 21 21 21 20 19 19 18 18 17 18 18 19 19 19
3 5 6 7 8 9 11 13 14 14 16 17 18 18 19 19 19 19 19 20 20 20 19 19 19 18 17 16 15 15 15 15 15 16 17 17 17 17
2 2 3 4 5 7 8 10 11 12 13 15 16 16 16 17 17 17 17 17 16 16 15 14 14 14 13 13 13 13 14 14 14 14 15 15 15 15
4 3 3 3 3 5 6 6 7 8 10 12 13 14 14 15 15 15 14 13 13 12 12 12 12 12 12 11 11 10 11 12 12 12 13 13 13 14
7 6 5 4 4 4 5 5 6 7 8 9 11 11 11 11 11 12 12 11 11 11 11 11 10 10 10 10 9 9 10 10 10 11 11 11 12 13
9 7 6 6 5 5 5 6 7 7 7 8 9 10 10 10 10 10 10 10 10 10 10 9 9 9 9 9 9 8 8 9 9 9 10 11 11 11
9 9 8 7 7 7 6 6 7 7 7 7 7 8 8 9 9 9 9 9 9 8 8 8 8 8 7 8 8 8 8 8 8 8 9 9 9 9
11 10 9 9 8 8 7 6 6 6 6 7 7 7 7 7 7 7 8 8 7 7 7 7 7 7 7 7 7 7 7 7 7 8 8 8 8 8
12 11 11 10 10 9 9 8 8 7 7 6 6 6 6 6 6 6 6 6 6 7 7 7 6 6 7 7 6 6 6 6 6 7 7 7 7 8
12 12 11 11 10 9 9 8 8 8 7 6 6 6 6 5 5 5 5 5 5 5 5 6 6 6 6 6 6 6 6 6 7 7 7 7 7 8
11 10 10 10 10 9 8 8 7 7 6 6 6 5 4 4 3 3 3 4 4 4 5 5 5 6 6 6 6 6 6 6 6 6 7 7 7 8
9 9 9 8 8 7 7 6 6 6 5 5 4 4 3 2 2 2 2 2 3 3 4 4 4 5 5 5 6 6 6 6 6 6 7 7 7 8
7 7 7 6 6 5 5 5 5 4 3 3 2 2 1 1 1 1 2 2 3 3 4 4 4 4 5 5 6 6 6 6 7 7 7 8 8 9
5 5 4 4 4 3 3 3 3 2 2 1 0 0 1 1 2 2 3 3 3 4 4 5 5 5 5 5 6 6 7 7 8 8 9 9 10 10

GEFSNE_500_meanwind_084.txt.gz
Wind_Speed
35 36 36 37 37 37 36 36 36 36 36 35 36 36 35 33 33 32 31 30 31 30 29 29 28 28 28 28 27 27 27 27 27 27 27 28 28 28
32 34 36 35 36 37 36 36 36 36 36 36 36 37 37 35 34 33 32 31 31 31 31 30 29 29 29 29 28 28 29 29 29 29 29 29 29 29
29 31 34 34 34 35 35 35 35 35 35 35 36 36 37 37 36 35 34 34 33 31 30 31 31 31 30 30 29 29 30 29 30 30 30 30 30 30
26 27 30 31 30 30 32 33 33 33 33 34 34 34 35 35 35 35 35 34 33 33 32 32 32 31 31 30 30 29 29 29 30 30 30 30 30 30
22 24 27 28 28 28 28 29 31 31 32 33 34 34 34 34 34 33 33 33 32 32 32 32 31 30 29 28 28 27 28 28 28 28 28 28 29 29
18 20 23 24 24 25 26 26 27 29 30 32 34 34 33 33 34 33 32 32 32 32 32 32 31 29 27 27 27 27 27 27 27 27 27 28 28 28
15 17 19 20 20 22 23 25 25 26 28 29 29 31 31 31 32 32 32 31 30 30 30 30 29 28 28 27 27 27 27 27 27 27 26 26 26 26
12 14 16 17 18 19 21 22 22 23 24 26 27 28 29 29 29 30 29 29 30 30 29 27 26 27 26 26 26 26 25 26 25 25 25 25 25 25
8 11 13 15 16 17 18 19 20 21 22 23 25 26 26 27 27 26 26 27 27 26 26 25 24 24 24 24 24 24 24 24 24 24 24 24 24 23
5 8 10 13 14 14 15 16 17 18 19 20 21 22 23 24 23 24 24 24 23 22 22 22 23 23 23 22 22 22 23 23 23 23 22 21 20 19
2 4 6 8 10 11 13 15 16 16 17 18 18 19 20 21 21 22 22 22 21 20 20 20 20 21 21 20 20 21 21 20 20 20 20 18 17 16
2 1 2 4 6 7 9 10 12 13 14 15 15 16 17 19 19 19 19 19 19 19 19 19 19 19 19 18 18 17 18 18 17 16 15 14 14 13
5 3 1 1 2 4 6 7 7 9 10 12 13 14 15 16 16 16 16 16 16 16 16 16 16 16 16 16 15 15 15 14 14 14 14 13 12 12
7 5 3 3 2 2 3 4 5 7 7 9 11 12 12 13 13 13 14 14 14 14 14 14 14 14 14 13 13 13 12 11 11 11 11 11 11 11
9 7 6 5 4 4 3 3 3 4 5 7 8 9 9 10 11 12 11 11 11 11 12 13 13 12 12 12 12 11 10 10 10 10 9 10 10 10
11 10 9 8 7 7 6 5 5 5 5 5 6 7 8 8 9 10 10 10 10 10 11 11 10 9 9 9 10 9 10 10 10 10 9 9 9 9
11 10 10 9 8 7 6 5 5 5 4 5 5 5 5 5 6 7 8 8 8 9 9 8 8 9 9 10 9 9 9 10 10 10 9 9 9 9
10 9 9 8 8 7 6 6 5 4 4 4 4 4 3 3 3 5 6 6 7 8 8 9 9 9 9 9 9 9 9 9 9 9 9 9 9 9
10 9 7 7 6 6 5 5 4 4 3 3 3 3 2 2 2 3 4 5 6 6 7 8 9 9 9 9 9 9 9 9 9 9 9 9 9 9
7 7 6 6 5 5 4 3 3 3 3 2 2 2 2 2 2 3 4 4 5 6 6 7 8 8 8 8 8 8 9 9 9 9 9 9 9 9
5 5 4 4 4 3 3 3 2 2 2 2 1 1 1 2 3 4 4 4 5 6 6 7 7 8 8 8 8 9 9 9 9 9 10 10 10 10
4 4 3 2 2 1 1 1 0 0 1 1 1 1 2 2 3 4 4 5 6 6 6 7 7 7 8 8 8 9 9 10 10 10 10 11 11 12
6 5 5 4 4 4 3 3 2 2 3 3 3 3 4 4 4 5 5 6 6 6 7 7 8 8 9 9 10 10 10 11 11 11 12 12 13 13

GEFSNE_500_meanwind_090.txt.gz
Wind_Speed
33 34 34 35 35 35 36 36 37 38 38 38 37 37 37 37 35 34 34 33 33 33 32 32 31 31 30 30 30 29 29 28 28 28 28 28 28 28
31 32 32 33 34 35 34 35 35 36 37 37 36 36 37 37 37 36 35 35 35 35 34 33 32 32 32 31 31 30 30 30 30 30 30 29 29 29
27 29 30 31 32 33 34 34 34 35 36 37 36 35 36 36 36 37 37 36 36 35 34 33 33 32 32 31 31 31 31 31 31 31 30 30 30 30
23 25 28 29 31 31 33 34 34 35 35 35 36 36 36 36 35 36 36 37 37 36 35 34 33 32 32 33 32 32 32 32 32 32 32 31 30 30
19 22 24 26 27 29 30 32 33 33 34 33 34 35 36 35 35 35 36 36 35 35 35 34 34 33 33 33 33 33 32 32 32 32 32 32 31 30
15 18 21 23 24 26 29 31 32 33 33 33 33 33 35 36 36 36 35 34 34 34 34 34 34 33 33 33 33 32 31 30 31 31 31 30 29 29
12 15 17 19 21 23 25 28 29 31 31 31 32 32 33 33 33 33 34 34 34 34 33 32 32 32 32 32 32 31 31 31 31 31 30 29 28 28
9 12 14 16 17 19 21 24 26 28 29 29 30 30 30 30 31 31 31 32 32 31 32 32 31 31 31 31 31 31 31 31 30 29 28 27 26 26
6 8 11 13 15 16 17 20 22 24 25 26 26 27 28 28 28 29 29 30 29 28 29 30 30 30 30 30 29 29 29 28 28 27 26 25 25 25
4 6 8 10 11 14 15 17 19 21 24 25 24 25 27 27 26 27 28 28 29 28 28 28 28 27 27 28 27 26 26 25 25 25 24 24 24 24
2 3 6 8 9 10 12 14 16 18 21 21 20 21 24 24 24 25 26 27 27 27 27 26 26 26 26 26 25 24 23 22 22 23 23 23 22 22
3 1 2 4 5 7 9 11 13 14 17 18 18 18 19 21 21 22 23 24 25 25 25 25 24 24 24 24 23 22 21 21 20 20 20 20 21 21
5 2 1 1 2 5 7 8 9 11 13 15 15 16 17 18 19 19 20 21 21 22 21 22 22 22 22 21 21 21 20 19 19 18 18 18 18 18
7 4 3 1 0 2 3 4 6 8 10 11 12 13 14 16 16 17 18 19 19 19 19 19 19 19 19 19 19 18 18 18 18 17 16 15 15 16
8 6 4 2 1 0 2 3 4 6 8 9 10 11 11 12 13 14 15 16 17 17 17 18 17 17 16 17 17 16 17 17 16 16 15 15 14 14
8 7 5 4 2 1 1 2 3 4 6 8 8 8 9 10 11 12 13 13 14 16 16 16 16 16 15 15 15 15 15 15 15 14 14 13 14 14
8 7 5 3 3 2 0 1 2 4 5 6 7 7 8 9 9 9 10 12 13 13 14 14 14 14 14 14 14 14 14 14 14 13 13 13 13 13
8 6 5 4 3 2 1 1 3 3 4 5 7 7 8 8 8 9 9 10 10 11 11 11 12 12 13 13 13 13 12 12 13 13 13 13 12 12
7 6 4 3 2 2 1 1 2 3 4 5 6 6 7 8 9 9 9 9 9 9 10 10 11 11 12 12 12 12 12 12 12 12 12 12 12 12
8 7 5 4 3 2 2 2 3 3 4 5 6 7 7 7 7 8 8 8 9 9 10 10 10 11 11 11 12 12 12 12 12 13 13 13 13 13
10 9 8 7 6 5 4 4 4 5 6 6 7 7 8 8 8 8 8 9 9 10 10 11 11 11 12 12 12 12 12 13 13 13 13 13 13 14
13 12 11 11 9 8 8 7 7 7 7 8 8 8 8 9 9 9 9 9 9 10 11 12 13 13 13 13 13 13 13 13 13 13 13 14 14 15
17 16 16 15 14 13 12 11 11 11 11 11 11 11 11 10 10 11 11 11 11 12 12 12 13 13 14 14 14 14 14 14 14 15 15 15 16 16

GEFSNE_500_meanwind_096.txt.gz
Wind_Speed
25 27 30 31 32 32 32 32 31 31 33 34 33 33 34 35 36 36 36 35 34 33 32 32 31 30 30 30 30 29 29 29 28 28 27 27 27 26
22 24 26 28 30 31 32 32 32 31 31 31 32 33 34 34 35 35 35 35 34 34 33 33 32 31 31 31 31 30 30 30 29 29 29 29 28 28
19 21 23 25 27 29 30 31 31 31 31 31 32 32 33 33 34 35 35 34 34 34 34 33 34 34 33 33 32 32 31 31 31 31 31 31 30 29
16 18 20 22 24 26 28 29 30 30 30 30 30 31 32 34 33 33 34 34 33 34 33 33 33 33 33 33 33 33 32 32 31 31 31 31 31 31
12 15 17 19 22 24 26 27 28 29 30 30 30 30 30 31 31 31 31 31 32 32 32 32 32 32 32 32 33 33 33 33 32 32 32 32 31 31
8 11 14 16 19 21 23 25 26 27 28 29 30 30 30 31 31 31 31 31 31 31 31 31 31 32 32 31 32 32 32 32 31 31 32 32 32 32
7 9 12 13 16 18 20 22 24 25 27 28 28 30 31 31 30 30 29 29 30 30 30 30 30 30 30 30 30 30 30 30 30 30 30 30 30 31
6 8 10 11 13 15 17 19 20 22 24 26 27 28 29 29 29 29 29 30 29 30 31 30 29 30 30 29 29 29 29 30 30 30 29 29 29 29
7 7 8 9 11 13 15 17 18 19 20 22 24 25 26 28 27 27 28 29 29 30 30 30 29 29 29 30 30 30 30 30 30 30 30 30 29 29
8 7 6 7 8 10 12 13 14 15 17 19 21 22 23 24 25 26 27 27 28 29 29 29 29 29 30 30 30 29 29 29 29 28 28 29 29 28
9 7 6 6 6 8 9 11 13 14 15 17 18 20 21 22 23 24 25 25 26 27 27 28 28 28 29 29 28 27 27 27 26 26 26 27 26 25
10 8 7 6 6 6 8 9 10 11 13 14 15 17 18 20 21 22 23 23 23 24 24 24 25 26 25 26 25 25 25 25 24 24 23 23 23 23
11 10 8 7 6 7 7 7 9 10 11 12 13 14 16 17 18 20 21 21 21 22 23 23 24 24 23 23 23 23 23 23 22 22 22 22 22 22
12 11 9 8 7 7 7 7 7 7 9 10 12 12 13 15 16 18 19 19 20 20 21 22 22 22 22 21 21 21 21 21 22 22 22 22 22 21
13 11 10 10 9 8 7 7 7 7 7 8 9 11 12 14 15 16 18 19 19 19 19 19 19 20 19 19 19 19 19 20 20 21 21 20 19 18
14 13 11 11 10 9 8 7 7 7 7 7 8 9 10 11 13 14 15 16 17 17 17 17 18 18 18 18 18 19 19 19 20 19 18 18 18 17
13 13 12 11 11 10 9 8 7 7 7 7 7 7 8 9 10 11 13 14 15 15 16 17 17 16 16 17 17 17 16 17 16 16 16 16 16 15
14 14 13 12 12 11 11 10 9 9 8 8 8 9 9 9 10 11 12 12 12 13 14 15 15 15 16 16 15 15 15 15 15 15 15 15 15 15
16 15 14 14 13 12 12 11 11 10 9 9 9 10 10 10 10 10 10 11 11 12 12 13 14 14 15 15 15 15 15 15 15 15 15 15 15 15
18 17 16 16 15 14 13 13 12 11 11 11 10 10 10 11 11 12 12 12 12 12 12 13 13 14 14 15 15 15 15 15 15 15 15 16 16 16
21 20 19 18 17 16 16 15 14 13 13 13 13 13 13 13 13 14 14 14 13 13 14 14 14 14 14 14 15 15 15 16 16 16 17 16 16 16
25 24 23 22 21 20 19 18 17 17 16 16 16 16 16 16 16 15 16 16 16 16 16 16 16 16 16 16 16 16 16 17 17 18 17 17 16 16
29 28 27 26 25 24 24 23 22 21 21 20 20 19 19 19 18 18 18 18 18 18 18 18 18 18 18 18 17 17 17 17 17 17 17 17 17 17

GEFSNE_500_meanwind_102.txt.gz
Wind_Speed
20 22 24 25 27 29 29 30 31 33 33 33 34 35 35 36 36 36 35 35 34 34 34 33 32 32 31 30 30 30 30 29 29 28 27 27 27 27
17 19 21 23 25 27 28 29 29 31 31 32 32 34 34 35 35 36 36 37 37 36 35 35 34 33 33 32 32 31 30 30 30 30 29 29 28 28
15 18 20 22 23 25 26 27 29 29 29 30 31 32 32 33 34 34 35 36 37 36 35 35 35 34 34 34 33 33 32 31 30 30 30 29 29 30
11 14 17 19 21 23 25 27 28 29 29 30 31 31 32 32 33 34 34 36 35 36 37 37 36 35 34 34 34 33 33 32 31 31 30 30 30 30
7 9 12 15 18 20 22 25 26 28 29 29 30 32 32 31 32 32 33 34 35 35 36 36 36 36 36 35 35 34 33 32 32 31 30 31 31 31
4 6 9 12 15 18 19 22 24 25 27 28 29 30 31 31 32 32 32 33 34 35 36 35 35 36 35 35 34 34 34 33 33 32 31 31 31 32
3 4 6 9 12 14 16 18 21 23 25 26 26 28 29 29 30 31 31 33 33 33 35 35 35 35 34 34 34 33 33 33 32 32 32 32 32 32
4 4 4 6 9 11 13 16 18 20 22 23 24 25 26 28 29 30 30 31 31 31 33 33 34 34 34 34 33 33 33 33 32 31 31 32 32 32
6 4 4 4 6 8 11 13 15 17 19 20 21 22 23 25 27 28 30 30 30 30 32 33 33 33 33 33 33 33 32 30 30 30 31 32 32 32
8 6 5 4 5 7 9 11 12 15 17 18 19 21 22 23 24 26 27 29 30 31 31 32 32 32 32 32 31 32 31 31 31 31 31 30 31 31
9 7 6 5 5 6 8 9 11 13 14 16 17 19 21 22 23 24 25 26 28 28 29 29 30 31 31 30 31 31 31 31 30 30 30 30 29 29
10 8 7 7 7 6 7 8 10 11 13 14 16 18 19 21 22 23 24 26 26 27 28 29 29 30 30 30 31 31 31 30 30 29 29 28 28 28
11 9 8 8 8 7 7 7 8 10 11 13 15 16 18 19 21 22 23 24 25 26 26 27 27 28 28 28 29 29 29 29 29 29 29 28 27 27
12 11 11 10 9 9 9 9 9 10 11 13 14 16 17 19 19 20 21 23 24 24 25 25 26 27 27 27 28 28 29 29 29 29 29 28 27 27
13 13 12 11 11 10 10 10 10 10 11 12 14 15 16 16 18 18 19 20 22 23 24 24 25 25 26 27 28 28 28 29 29 29 29 28 28 28
14 13 13 12 12 12 11 11 11 11 11 12 13 14 15 15 16 17 18 19 20 21 22 23 24 25 26 26 27 26 26 26 26 27 27 27 27 26
16 16 15 14 14 14 13 13 13 13 13 13 13 13 14 15 16 17 17 18 20 21 22 23 23 25 26 26 26 26 26 26 26 26 26 25 25 25
19 18 18 17 16 16 16 15 15 15 15 15 15 15 15 15 16 16 17 18 19 20 21 22 23 23 24 25 25 25 26 26 26 26 26 25 25 25
21 21 21 20 20 19 18 18 18 18 17 17 17 16 16 16 16 17 18 18 19 19 20 21 22 22 22 22 23 24 25 25 25 25 25 25 24 24
24 24 24 24 23 22 22 21 21 21 20 20 19 19 18 18 18 18 18 19 19 20 20 21 22 22 22 22 22 23 24 25 24 24 24 24 23 23
27 27 27 27 27 26 26 25 25 24 24 23 23 22 22 22 21 22 22 22 21 22 22 22 22 22 22 23 23 24 24 24 25 25 24 24 24 24
30 30 30 30 30 30 29 29 29 28 27 27 26 26 26 25 25 25 24 24 24 24 24 25 24 24 24 24 25 25 24 24 24 24 24 25 25 25
34 33 33 33 33 33 33 32 32 32 31 31 30 30 30 29 29 28 28 28 28 27 27 27 27 27 26 26 26 26 26 25 25 25 26 26 26 26

GEFSNE_500_meanwind_108.txt.gz
Wind_Speed
13 15 18 20 22 23 23 25 28 29 29 31 32 32 33 35 36 35 35 35 34 33 33 33 33 33 32 32 32 31 30 29 29 28 28 27 26 26
11 13 15 17 19 21 22 23 26 28 29 30 31 32 33 34 35 36 36 36 36 35 34 33 33 34 33 33 33 32 31 31 30 29 29 29 28 28
10 11 13 15 17 19 21 22 24 25 27 28 30 30 30 33 34 35 35 35 36 36 36 35 34 35 34 34 34 34 33 33 31 31 30 30 30 30
7 9 11 13 15 18 20 22 23 24 25 27 28 29 29 31 32 33 34 34 35 36 37 37 36 35 36 36 35 35 34 34 34 33 32 32 32 32
6 7 9 11 13 15 18 21 23 24 24 26 26 27 27 29 31 32 33 33 34 35 36 37 36 35 36 36 36 36 35 35 34 34 34 33 33 32
5 5 7 8 10 12 15 17 20 22 23 24 25 25 26 27 28 30 30 32 34 35 35 36 37 36 35 35 36 36 36 36 36 35 35 34 34 33
6 6 5 6 8 10 11 13 16 19 21 22 23 24 24 25 26 28 29 29 30 32 33 34 35 35 35 35 36 36 36 37 37 37 36 35 34 34
8 7 6 6 6 8 10 12 13 16 18 19 21 22 23 25 26 27 28 28 28 29 31 32 33 33 34 35 36 36 36 37 37 37 36 36 36 35
9 8 7 6 6 7 8 10 11 13 16 18 20 20 22 24 24 25 27 27 27 28 29 31 32 33 33 34 35 36 37 37 37 37 37 37 37 37
10 9 8 7 7 7 8 9 10 12 15 17 19 20 20 21 23 24 25 26 27 28 28 30 31 32 33 33 34 36 37 38 38 37 37 37 36 36
10 10 9 9 8 8 8 9 10 12 13 14 17 19 19 20 21 22 23 24 24 26 27 28 30 32 33 33 33 34 36 36 37 37 36 35 35 35
11 10 10 10 10 10 10 10 11 11 12 13 15 17 18 19 20 21 22 23 24 25 26 27 29 31 32 32 33 33 34 34 35 36 36 35 34 34
13 12 12 11 11 11 11 11 12 13 13 14 15 17 18 19 20 20 21 22 23 25 26 27 28 29 30 30 31 32 33 33 33 34 35 35 36 35
14 13 13 13 12 12 12 12 12 13 13 15 15 16 18 19 20 21 22 22 23 24 26 26 27 28 29 30 30 31 31 32 32 33 34 35 35 35
15 15 14 14 14 13 13 13 13 14 14 15 16 17 18 19 20 21 22 23 24 24 26 26 27 28 29 29 30 30 30 31 31 32 33 33 33 32
17 16 16 16 15 15 15 15 16 16 17 17 17 18 19 19 20 21 22 22 23 24 25 26 27 28 28 29 29 30 30 30 31 33 34 34 33 33
19 19 18 18 18 17 17 18 18 18 19 19 20 20 21 21 22 22 23 24 24 25 25 26 26 26 27 28 29 30 30 31 31 32 33 34 34 34
21 21 21 21 21 21 21 21 21 21 21 22 22 23 23 23 24 24 25 26 26 26 27 27 27 27 27 27 28 29 29 30 31 31 31 31 32 32
23 22 22 22 23 23 23 23 24 24 24 24 24 25 25 26 26 26 27 27 27 27 27 28 28 29 29 29 29 29 30 30 30 31 32 31 31 31
25 25 24 24 24 24 25 25 26 27 27 27 27 27 27 28 28 29 29 29 30 29 30 30 30 30 30 31 30 31 31 31 31 31 30 31 32 32
27 27 27 27 27 27 28 28 29 29 29 30 30 30 30 30 31 31 31 31 31 31 32 32 32 32 32 32 32 32 33 32 32 32 31 31 32 32
30 30 30 29 30 30 31 32 32 32 32 33 33 34 34 34 34 34 34 34 34 34 34 33 34 34 34 34 34 34 34 34 34 34 33 33 32 32
32 33 33 33 34 34 34 35 35 35 36 37 37 37 38 38 38 38 38 38 38 38 38 37 36 36 37 37 37 36 36 36 35 34 34 34 34 33

GEFSNE_500_meanwind_114.txt.gz
Wind_Speed
9 12 14 15 16 17 18 20 21 23 26 28 30 30 31 33 33 34 33 33 33 33 33 33 34 33 32 32 32 32 31 30 30 29 29 30 29 29
7 10 11 13 15 15 17 18 19 21 23 25 28 29 29 30 31 33 33 33 33 33 33 33 34 34 34 34 33 32 32 31 31 31 31 30 30 30
6 7 9 10 13 14 15 17 18 19 21 24 25 27 29 30 30 31 32 33 34 34 34 33 33 34 34 34 35 35 34 34 33 33 33 32 31 32
4 6 7 9 10 12 14 16 17 19 20 21 23 24 27 28 29 30 31 32 32 33 34 34 34 34 35 35 36 36 36 35 35 35 35 34 34 33
3 4 6 7 9 10 12 14 16 18 20 21 22 24 25 26 27 29 30 31 32 32 33 34 34 34 34 35 35 36 36 35 35 35 35 35 35 35
3 4 5 6 8 9 12 13 15 17 19 20 22 23 24 25 26 27 28 30 30 32 33 34 35 35 34 34 34 35 35 36 36 36 36 36 35 35
3 4 4 5 6 8 9 11 13 14 16 18 19 21 23 24 25 25 26 28 29 30 32 34 34 35 35 34 34 35 35 35 36 36 37 37 36 36
4 4 4 4 5 6 7 9 10 12 14 15 17 18 19 20 22 23 25 26 26 28 30 32 33 34 35 35 35 35 35 35 36 36 36 37 37 37
6 6 5 5 6 7 8 9 10 11 13 15 17 17 19 20 21 22 22 24 25 26 28 28 29 31 32 34 35 35 35 35 35 36 37 37 37 37
8 7 7 7 7 8 9 10 10 11 13 14 16 18 19 20 21 22 23 24 25 26 27 27 28 28 30 31 33 34 34 35 36 36 37 37 37 38
9 9 9 9 9 9 9 10 11 12 13 14 15 17 19 20 21 21 23 24 25 26 26 27 28 29 30 32 33 33 34 34 35 36 37 38 38 39
10 10 10 10 10 10 10 11 11 12 13 14 15 17 18 19 20 22 22 23 24 26 26 26 27 29 30 32 33 34 34 34 35 35 36 36 37 38
12 12 12 12 12 12 12 13 13 13 14 14 16 17 18 18 20 21 22 23 24 26 26 25 26 28 29 30 32 33 34 34 35 35 36 37 38 38
13 13 13 13 14 14 14 14 14 15 15 16 17 18 19 19 20 21 22 23 25 25 26 26 26 27 28 29 30 32 33 34 34 35 36 36 37 37
15 15 15 15 15 15 15 15 16 16 17 17 18 19 20 21 22 23 23 24 25 27 27 27 27 28 28 28 29 31 32 33 34 35 36 36 37 37
17 17 17 17 17 17 17 17 18 18 19 19 20 20 21 22 23 24 25 25 26 27 28 29 29 29 30 30 30 31 32 33 34 35 35 36 36 36
19 19 19 18 18 18 18 19 20 20 21 21 22 22 22 23 24 25 27 27 27 28 28 29 31 31 32 32 32 32 33 33 34 35 36 36 36 36
22 21 21 21 21 21 21 22 22 22 23 24 24 24 25 26 26 27 28 28 28 29 30 30 31 32 32 32 33 33 34 35 35 35 35 36 35 36
24 23 23 23 23 24 24 24 24 25 25 26 27 27 28 28 29 29 30 31 31 32 32 33 34 34 35 35 35 36 36 36 36 36 36 36 36 37
25 25 25 25 25 26 26 27 27 27 27 28 28 29 30 31 31 32 33 34 34 35 35 36 36 37 37 38 38 38 38 38 38 38 38 38 38 38
27 27 27 27 27 28 28 29 29 30 30 31 31 32 33 33 34 35 36 37 38 38 39 39 39 40 40 40 40 40 40 41 41 40 40 40 40 39
29 29 29 29 30 30 31 31 32 32 33 34 34 34 35 36 36 37 38 39 40 41 41 41 42 42 42 42 42 42 42 42 42 42 42 42 42 41
31 32 32 32 32 32 33 34 34 34 35 35 36 37 37 38 39 40 41 42 42 43 43 44 44 45 45 45 44 44 44 43 43 43 43 43 43 43

GEFSNE_500_meanwind_120.txt.gz
Wind_Speed
4 6 7 9 10 13 15 17 17 18 20 23 25 26 28 29 30 30 30 30 30 30 30 30 30 30 30 29 29 28 28 28 27 27 27 27 27 27
3 4 6 7 8 10 12 14 15 17 19 20 22 25 27 27 29 30 30 30 29 30 30 30 30 30 30 31 30 30 30 30 30 29 29 30 30 29
3 4 5 6 6 8 11 12 13 14 16 18 20 22 24 26 27 27 28 29 30 30 30 30 30 30 30 30 30 30 30 30 30 30 31 31 31 31
3 4 5 5 6 7 9 11 12 12 13 14 17 19 22 24 25 25 26 27 28 29 30 30 29 29 30 29 30 31 31 31 31 31 31 31 31 31
3 4 4 5 6 7 8 10 11 12 14 14 16 17 19 22 23 24 24 25 26 27 28 29 29 29 30 30 30 31 31 32 32 33 32 32 32 32
4 4 5 6 6 7 9 10 11 12 13 13 15 17 17 19 21 22 24 25 25 26 27 28 28 29 30 31 31 31 32 32 32 33 33 33 33 33
5 5 5 6 7 8 9 9 10 11 12 13 14 16 17 18 20 21 23 24 25 26 27 28 29 30 31 31 32 33 33 33 33 34 34 34 34 34
7 6 6 6 7 8 9 10 10 11 12 13 14 16 17 17 18 19 21 22 24 25 26 27 28 29 30 31 33 33 34 33 33 33 34 34 34 35
8 7 7 7 7 7 8 9 10 11 12 12 13 14 16 17 17 18 20 20 21 22 23 24 26 28 29 31 32 32 33 33 33 33 33 34 35 35
9 9 9 9 8 9 10 10 10 11 12 12 12 13 14 16 17 18 19 20 21 22 22 23 25 26 27 28 30 31 32 33 34 34 34 35 35 36
11 10 10 10 10 10 10 11 11 12 12 13 14 14 14 15 16 17 19 20 21 22 23 24 25 26 26 27 28 29 31 32 33 34 34 35 35 36
13 12 12 12 12 11 11 12 12 13 14 14 15 15 15 15 16 17 18 20 21 22 23 24 24 25 26 27 28 29 30 31 32 34 34 35 36 36
14 14 14 14 13 13 13 13 14 14 15 15 15 16 16 17 18 18 20 21 21 22 23 24 24 25 26 27 28 30 30 31 32 33 34 35 36 37
16 16 16 15 15 15 14 15 15 16 16 16 16 17 18 18 19 20 21 22 22 23 24 25 25 26 27 28 29 30 31 32 32 34 35 35 35 36
17 17 17 17 17 16 16 16 16 17 17 17 17 18 19 20 21 21 22 23 23 24 25 25 26 27 28 29 29 30 31 32 32 33 34 35 36 36
19 19 19 19 18 18 18 18 18 18 18 19 19 20 21 22 22 23 24 25 26 26 27 27 28 29 30 31 31 31 32 32 32 33 34 35 35 36
21 21 20 20 20 20 20 19 19 19 19 20 20 21 22 22 23 24 25 26 27 28 29 29 30 30 31 31 32 33 34 34 35 36 36 36 36 37
23 22 22 22 22 22 21 21 21 21 22 22 22 23 24 24 25 26 27 28 28 29 30 31 32 33 33 34 35 36 36 37 37 37 38 38 38 39
25 24 24 24 24 24 24 24 24 24 24 24 24 25 25 26 27 28 28 29 30 30 31 32 33 34 34 35 36 38 38 38 39 39 40 40 40 40
27 26 26 26 26 26 26 26 26 26 26 26 26 27 27 28 29 29 30 30 31 32 33 33 34 35 36 36 37 38 40 40 40 40 40 40 41 41
29 29 28 28 28 28 28 28 28 28 28 29 29 29 30 30 31 31 32 32 33 34 35 35 37 37 38 39 39 39 40 41 42 42 42 42 42 42
31 31 30 30 30 30 30 30 30 30 31 31 32 32 32 33 33 33 34 35 35 36 37 38 39 40 40 41 41 41 41 42 43 44 44 44 44 43
32 32 32 31 31 31 31 32 32 32 32 33 34 35 35 35 35 36 37 37 38 39 39 40 40 41 42 43 43 43 43 43 44 44 45 46 46 46

GEFSNE_500_meanwind_126.txt.gz
Wind_Speed
4 5 6 9 11 13 15 16 18 19 20 21 21 22 24 26 26 26 27 28 29 30 30 30 30 30 30 30 30 30 30 29 29 28 27 27 26 26
3 4 5 7 9 11 13 15 16 17 19 20 20 21 21 24 25 26 27 28 29 30 30 31 31 31 31 31 31 31 30 31 30 29 29 29 29 28
1 2 4 5 7 10 12 13 15 16 16 19 20 20 21 23 25 25 26 26 27 28 30 31 31 31 31 32 32 32 32 31 31 31 31 31 30 30
2 1 2 3 5 8 10 12 13 15 16 17 18 19 20 21 23 25 26 27 27 28 28 29 30 31 31 32 32 32 32 32 32 32 33 32 32 32
3 2 3 3 4 6 8 10 11 13 15 15 16 17 18 19 20 23 25 27 28 29 28 28 29 31 32 32 32 32 32 33 34 34 34 34 33 33
4 3 3 4 5 6 7 8 9 11 13 14 15 16 17 18 20 21 23 25 26 28 28 28 28 29 31 32 32 33 33 34 35 34 34 34 34 34
4 4 3 4 5 6 7 8 9 10 12 13 14 15 16 17 19 21 22 23 25 26 27 28 28 29 30 31 32 32 32 33 33 34 34 34 35 35
5 5 4 4 5 6 7 8 9 10 11 13 14 15 16 17 18 19 21 22 24 25 26 27 28 29 30 31 31 31 31 32 33 34 34 35 35 36
6 6 5 5 5 6 7 8 9 10 11 13 14 15 16 17 18 19 21 22 23 24 25 26 26 26 28 28 29 30 31 32 32 33 35 36 37 37
8 6 6 6 6 6 7 8 10 11 12 13 14 15 16 17 18 19 20 21 21 22 23 25 26 26 27 28 29 29 30 31 32 33 34 35 36 37
9 8 7 7 7 7 8 9 10 10 12 13 14 15 16 17 17 18 19 20 21 21 21 23 24 25 26 28 28 29 30 31 32 33 34 34 35 36
10 9 9 8 9 9 9 10 10 11 13 14 15 16 16 17 18 19 20 20 21 22 22 23 24 25 26 27 27 28 29 29 30 31 32 33 34 35
11 11 11 11 11 11 11 11 12 12 13 14 15 16 17 18 18 19 20 21 22 22 23 23 24 25 26 27 29 29 29 30 31 31 32 33 34 35
13 12 12 12 13 13 13 14 14 14 15 16 17 18 18 19 19 20 20 21 21 22 24 24 25 26 27 28 29 30 31 31 32 32 33 34 34 35
15 15 15 14 14 15 15 15 16 16 17 17 18 19 20 20 20 21 21 22 23 23 24 25 26 27 28 29 30 31 32 32 33 33 34 35 35 36
17 17 17 16 16 17 17 17 18 18 19 19 19 20 20 21 21 22 22 23 24 25 25 26 27 28 29 30 31 31 32 33 34 35 36 37 37 38
19 19 19 19 19 19 19 19 19 19 20 20 20 21 21 22 22 22 23 24 25 26 27 28 29 29 30 31 32 33 34 35 35 37 37 38 39 39
21 21 21 21 21 21 21 21 21 21 21 21 22 22 23 23 24 25 25 26 26 27 28 29 30 31 31 32 33 34 35 36 37 37 38 39 39 40
24 23 23 23 23 24 23 23 23 23 23 23 23 24 24 25 26 26 27 28 28 29 30 31 32 32 33 34 35 36 36 37 38 38 39 40 40 41
26 26 26 25 25 26 26 26 26 26 25 25 25 26 26 26 27 28 29 30 30 31 32 33 34 34 35 36 36 37 38 39 39 40 41 41 42 43
28 28 28 27 27 28 28 28 28 28 28 28 28 28 28 28 29 29 30 31 32 33 34 34 35 36 37 38 38 39 40 41 41 42 42 43 44 44
30 30 30 30 30 30 30 30 30 30 29 29 29 30 30 30 31 31 32 32 33 34 35 36 37 37 38 39 40 40 41 42 43 44 45 45 45 45
32 32 32 31 31 32 32 31 31 31 31 31 31 31 31 32 32 33 33 34 35 35 36 37 38 38 39 40 41 42 42 43 44 45 46 47 48 48

GEFSNE_500_meanwind_132.txt.gz
Wind_Speed
4 4 5 6 8 10 12 13 14 17 17 19 20 21 23 24 25 24 25 26 26 26 26 27 27 27 26 26 26 27 27 27 27 27 27 27 26 26
3 4 4 5 6 8 10 12 13 14 16 18 19 20 20 22 23 24 24 25 26 26 26 26 27 27 28 28 27 27 27 27 28 28 29 28 28 27
3 3 3 4 6 7 10 11 12 13 14 16 17 18 19 21 22 23 24 25 27 28 27 27 27 27 28 29 29 29 29 29 29 30 30 30 30 30
3 3 3 3 5 7 8 10 11 13 14 15 15 16 17 19 21 22 24 26 27 27 28 28 28 28 29 29 30 30 31 31 31 31 31 32 32 32
5 3 3 4 4 6 7 9 11 13 14 14 15 15 17 17 18 20 22 24 26 27 27 28 28 29 30 30 31 32 32 32 33 32 32 32 33 33
6 5 4 4 4 5 7 8 9 11 13 14 15 15 16 17 18 20 21 22 24 25 26 28 28 28 29 30 31 31 32 32 33 33 33 33 33 33
7 6 5 4 4 5 6 7 9 11 13 14 15 16 16 16 17 18 19 21 22 24 25 27 27 28 29 30 31 32 32 33 34 34 34 34 34 34
7 7 6 5 5 5 6 7 8 9 11 13 14 15 15 16 17 17 19 20 21 23 25 25 26 26 27 28 30 32 33 33 33 34 33 34 34 34
8 8 7 6 7 6 7 8 9 9 10 12 14 14 15 16 17 18 18 19 21 22 23 24 25 25 27 29 29 30 31 32 32 33 34 34 35 35
9 8 8 7 7 7 8 9 10 10 11 12 14 14 15 16 17 17 18 18 20 21 22 24 24 25 26 27 28 29 29 29 30 31 32 33 33 34
10 9 9 9 9 9 9 10 11 11 12 13 14 15 16 16 17 18 19 19 20 21 22 23 24 25 25 25 27 28 29 29 30 30 31 32 33 33
11 11 11 10 10 10 10 11 11 12 13 14 15 16 17 17 18 18 18 19 20 21 22 22 23 24 26 26 26 27 28 29 30 32 32 33 34 34
13 13 12 12 12 12 12 12 13 13 14 15 16 17 18 19 19 19 20 20 21 21 22 23 23 24 24 26 27 28 28 29 30 31 32 33 34 35
16 15 14 14 14 14 14 14 14 15 15 16 16 17 18 19 20 21 22 22 23 23 23 23 24 25 25 26 27 28 29 29 30 32 32 33 35 35
18 18 17 17 16 16 16 16 17 17 17 17 18 18 19 20 20 22 23 23 24 24 24 24 25 26 27 28 28 29 30 31 31 32 33 34 34 35
21 20 20 19 19 18 18 18 18 18 18 19 19 20 20 21 22 23 23 24 25 25 25 26 26 27 28 29 30 31 31 32 33 33 34 35 36 36
24 24 23 22 21 21 21 21 21 21 21 21 21 21 22 23 23 24 24 24 25 26 27 27 28 29 30 30 31 32 33 33 34 35 35 36 37 37
27 26 25 25 24 24 23 23 23 23 23 23 23 23 23 24 24 24 25 26 26 27 28 29 29 30 30 30 31 31 32 33 34 35 35 36 37 38
29 28 27 27 26 26 25 25 25 25 25 25 25 25 25 25 26 26 26 27 28 28 29 30 30 30 31 31 32 33 34 34 35 36 37 38 39 40
32 31 29 29 28 28 28 27 27 27 27 27 27 27 27 27 27 27 28 28 29 29 29 30 30 31 32 33 33 34 35 35 36 37 38 39 39 40
34 33 32 31 31 30 30 30 29 29 29 28 28 28 29 29 29 29 29 29 30 30 31 31 31 32 33 33 34 35 36 37 37 38 39 39 40 41
36 35 34 33 33 32 32 32 31 31 31 30 30 30 30 30 30 30 30 30 30 31 31 32 32 32 33 34 35 36 37 38 39 39 40 41 41 41
37 36 35 35 35 34 34 34 33 32 32 32 32 32 31 31 31 31 31 31 32 32 32 33 33 34 34 35 36 37 38 38 39 40 40 41 42 42

GEFSNE_500_meanwind_138.txt.gz
Wind_Speed
5 5 5 6 7 9 11 13 15 16 18 20 21 22 23 24 24 25 26 26 26 27 27 27 28 28 27 27 27 27 27 28 27 27 26 27 27 26
6 5 5 6 7 8 10 12 14 15 17 18 19 20 22 22 23 24 26 26 26 27 27 27 28 28 28 27 27 28 28 28 28 28 27 27 27 27
6 5 5 5 6 7 9 11 13 14 16 17 19 20 21 22 22 23 25 26 26 27 27 27 27 28 29 28 28 29 28 28 29 29 29 29 29 29
6 6 5 5 6 6 8 10 12 14 15 16 18 19 20 22 22 23 24 25 26 26 27 28 28 27 28 29 29 29 29 28 29 30 30 30 30 30
7 6 5 4 5 6 7 10 11 13 14 15 16 17 19 20 22 23 23 24 26 27 27 27 28 28 29 29 29 30 29 29 30 30 30 31 31 31
7 6 5 5 5 6 7 8 10 12 13 15 16 17 18 20 21 22 23 23 24 25 26 27 28 28 29 30 30 31 31 31 30 30 31 32 32 32
8 7 6 6 7 7 7 9 10 11 12 13 15 16 18 19 21 21 22 22 23 24 25 26 27 27 28 29 30 31 31 31 31 31 32 33 33 33
9 9 8 8 8 8 8 9 10 11 12 13 14 15 16 18 20 21 21 22 23 24 25 25 25 26 27 28 29 30 31 31 32 32 33 33 34 34
11 10 9 8 9 9 10 10 10 11 12 13 14 14 16 18 18 20 21 21 22 24 24 25 26 27 27 27 28 29 30 30 32 32 33 34 35 35
12 12 11 10 10 10 11 11 12 12 13 14 14 14 15 17 18 19 21 21 22 23 24 25 25 26 27 27 28 29 30 30 32 32 33 34 35 35
15 14 13 12 12 11 12 12 13 13 14 15 15 15 16 17 19 19 20 21 21 22 23 24 25 25 25 26 27 28 28 29 30 31 32 32 33 34
17 16 15 15 14 13 14 14 14 15 15 15 16 17 18 18 18 19 20 20 21 21 23 24 25 25 25 26 27 28 28 28 29 30 31 31 33 34
20 19 18 17 17 16 16 16 16 16 17 17 17 18 19 19 20 20 21 21 22 22 23 24 24 25 25 25 26 27 27 28 28 29 30 31 32 33
23 21 20 20 20 19 18 18 19 19 19 19 19 20 20 21 21 22 22 23 23 23 24 24 25 25 26 26 27 28 28 29 29 29 29 30 31 32
25 24 24 23 23 22 22 21 22 22 21 21 21 22 22 23 23 23 24 24 24 24 24 25 25 26 27 27 28 28 29 29 30 30 30 31 32 33
29 28 27 26 26 25 25 25 24 24 24 24 24 24 24 24 25 25 25 25 26 26 26 27 27 27 28 29 29 30 30 30 31 32 32 33 34 35
32 31 30 30 29 29 28 27 27 27 27 26 27 27 26 26 26 26 26 26 27 27 28 28 28 29 29 30 31 31 31 32 32 33 34 35 35 36
35 34 33 33 32 31 30 30 29 29 29 29 29 28 28 28 28 28 28 28 28 28 28 29 29 29 30 30 31 32 32 33 33 34 35 36 36 37
38 37 36 35 35 34 33 32 32 31 31 31 30 30 30 29 29 29 29 30 30 30 30 30 30 31 31 31 32 32 33 33 34 35 35 35 36 37
40 39 38 38 37 36 35 35 34 33 33 32 32 32 32 31 31 31 31 31 31 31 31 31 32 32 32 32 33 33 34 34 35 35 35 36 36 37
42 41 40 39 39 38 37 36 36 35 35 35 34 34 33 33 32 32 32 32 32 32 32 32 32 33 34 34 34 34 35 35 35 35 36 36 37 38
43 42 42 41 40 39 38 37 37 36 36 36 36 35 35 34 34 33 33 33 33 33 33 33 33 34 34 34 34 35 35 36 36 36 36 37 37 38
44 44 43 42 42 41 39 38 38 38 37 37 37 37 36 35 35 34 34 34 34 33 33 33 33 34 34 34 34 35 35 36 36 37 37 37 38 38

GEFSNE_500_meanwind_144.txt.gz
Wind_Speed
10 9 8 8 8 8 8 9 10 12 14 15 16 17 19 21 22 22 22 22 22 23 24 24 24 23 23 23 23 23 23 23 24 24 24 24 24 25
11 10 9 9 8 8 8 8 9 10 13 15 16 17 18 20 21 21 22 23 22 23 24 24 24 24 25 25 24 24 24 24 24 25 25 25 25 25
11 10 10 9 9 8 8 8 9 10 11 14 15 16 18 20 20 21 22 22 23 23 24 24 24 25 25 25 25 25 25 25 25 25 26 26 26 26
12 11 10 9 9 9 8 8 9 10 11 12 14 16 18 19 19 21 22 22 24 24 24 24 24 25 25 25 26 26 26 26 26 26 26 26 27 26
13 12 11 10 9 9 8 8 9 10 11 12 14 15 17 19 19 20 21 22 23 24 25 25 25 26 26 26 27 26 26 26 27 27 26 27 27 27
13 13 12 11 11 10 9 9 9 10 11 12 14 15 16 18 19 20 20 21 22 24 25 26 26 26 26 27 27 28 27 27 27 27 27 27 28 28
14 13 12 12 12 11 11 10 10 10 11 12 14 15 16 17 18 19 20 21 22 23 24 24 25 26 27 27 27 28 28 28 28 29 29 29 29 30
15 14 13 13 13 12 12 11 11 11 11 12 14 15 15 17 17 18 19 20 21 22 23 24 25 26 27 27 27 27 27 28 28 29 29 29 30 30
17 16 15 15 14 14 14 13 12 12 12 13 13 14 15 16 17 18 19 19 20 21 22 23 24 25 26 26 27 27 26 26 27 27 28 29 30 30
19 18 17 17 16 16 15 14 14 14 14 14 14 15 15 16 16 17 19 20 21 22 22 23 23 24 24 25 26 26 27 27 28 28 29 30 31 31
21 21 20 19 19 18 17 16 16 16 16 15 16 16 17 17 17 18 19 20 21 22 22 22 23 24 25 25 25 25 26 26 27 28 28 29 30 30
24 23 22 21 21 21 20 19 19 18 18 18 18 18 18 19 19 19 20 21 21 22 23 24 24 24 24 25 25 25 26 27 27 28 28 29 29 30
26 25 24 23 23 23 22 22 21 21 22 21 20 20 20 20 21 21 22 22 22 23 24 24 24 24 25 25 26 26 26 27 27 28 28 29 30 30
28 28 27 26 26 26 26 25 25 24 24 24 24 23 23 22 23 23 23 23 23 23 24 25 25 25 25 26 26 26 27 27 28 28 28 29 29 30
32 31 30 29 28 28 29 28 28 27 27 27 26 26 26 25 25 25 25 25 25 25 25 25 25 26 26 26 26 26 27 27 27 28 28 28 28 29
35 34 33 32 31 31 31 31 31 30 29 29 29 28 28 28 28 27 27 27 27 27 27 26 26 26 27 27 26 27 27 28 28 29 29 29 29 30
38 37 37 36 35 34 34 33 33 33 32 31 31 31 31 31 30 30 29 29 29 29 28 28 28 26 27 28 28 27 28 28 29 29 29 30 30 30
40 39 39 38 38 37 37 36 36 35 35 34 34 34 33 33 33 33 32 31 31 30 30 30 30 29 29 29 29 28 28 29 29 30 30 31 31 32
43 42 41 40 40 39 39 38 38 37 37 36 36 36 35 35 35 35 34 33 33 33 32 32 32 31 31 31 31 30 30 29 30 31 31 32 32 33
45 44 43 41 41 41 41 40 40 39 38 37 37 37 37 37 37 36 35 34 34 34 34 33 33 32 32 32 32 32 32 31 31 31 32 32 32 32
47 47 45 44 42 42 41 41 41 41 39 38 38 37 38 38 38 38 37 36 35 35 34 34 33 33 33 33 32 32 33 33 32 32 32 32 32 32
47 47 46 45 44 43 42 42 42 42 41 39 38 38 38 38 39 39 38 38 37 36 36 35 35 34 34 33 33 33 33 33 33 33 33 33 33 33
48 47 46 46 45 44 43 43 43 43 42 41 39 38 39 39 39 39 38 38 38 38 37 37 36 36 35 35 34 33 33 33 33 33 34 34 34 34

GEFSNE_500_meanwind_150.txt.gz
Wind_Speed
9 8 8 7 6 5 5 6 8 9 10 12 14 16 16 17 19 20 22 23 23 24 24 25 25 25 25 25 25 25 24 24 24 24 24 24 25 25
10 9 8 7 6 5 6 7 8 9 10 12 14 15 16 17 18 20 22 23 23 23 24 25 25 25 26 26 26 26 26 26 26 26 25 25 25 25
10 10 9 7 6 6 6 7 8 9 11 12 14 15 16 17 18 20 21 22 23 24 24 25 26 25 26 26 27 27 27 27 27 26 26 26 26 26
11 11 10 8 8 8 8 8 9 10 11 13 14 15 17 18 19 20 22 22 24 25 25 26 27 26 27 28 28 28 28 28 28 28 27 27 27 28
12 11 11 10 10 10 10 10 10 11 12 13 14 15 17 18 20 21 22 23 24 26 26 27 28 28 28 28 28 29 28 28 29 29 29 29 29 29
14 13 12 12 12 12 12 11 12 12 13 14 15 16 17 18 20 21 23 24 25 26 27 28 29 29 29 30 30 30 30 29 29 30 30 31 30 30
16 15 14 14 14 14 14 13 13 13 14 14 15 16 17 18 19 21 22 23 24 26 27 27 28 29 28 29 30 31 31 31 30 30 31 31 31 31
17 17 17 16 16 16 16 16 15 15 15 15 16 17 17 18 19 20 21 22 23 24 25 26 27 27 28 28 29 30 31 31 31 31 31 31 31 31
19 19 19 19 18 18 18 17 17 17 17 17 17 18 18 19 20 21 21 22 23 24 25 25 27 27 28 28 28 29 30 30 31 31 31 31 31 31
22 22 22 21 21 20 20 19 19 19 19 20 19 19 20 20 21 21 22 23 24 25 25 26 27 28 29 29 29 30 31 31 32 32 32 31 32 32
25 24 24 24 23 23 22 21 21 21 21 21 21 21 22 22 23 23 24 24 24 25 26 26 28 29 29 29 30 31 32 32 32 33 33 33 33 33
28 28 27 26 26 26 26 25 24 24 24 24 24 24 24 24 24 25 26 26 26 26 27 28 29 29 29 29 30 31 32 33 33 33 33 34 35 35
31 31 31 30 30 30 29 29 28 28 28 27 27 28 27 27 28 28 28 28 28 28 29 29 30 30 31 31 30 31 32 33 34 34 34 35 35 35
35 34 35 34 34 33 33 32 32 32 31 31 30 30 31 30 30 30 30 30 31 31 31 31 31 32 32 32 31 32 32 32 32 33 34 34 34 34
38 38 38 38 37 37 36 35 34 34 34 34 33 33 33 33 32 33 33 34 33 33 33 33 33 33 33 33 32 32 33 33 33 34 34 35 34 34
42 41 41 41 41 40 39 38 37 37 37 37 36 36 36 36 36 36 36 36 36 35 35 35 35 35 35 34 34 34 34 34 34 35 35 35 35 35
45 45 44 44 43 42 41 41 41 40 40 40 40 39 39 38 38 39 39 39 38 37 37 37 37 36 36 36 36 36 35 35 35 36 36 35 35 35
48 47 47 47 46 46 45 45 44 43 43 42 42 42 42 42 41 41 41 41 41 41 40 39 39 39 38 37 37 37 36 36 36 36 36 35 35 35
50 50 49 49 49 49 49 48 47 47 46 46 45 45 44 44 44 44 43 42 43 42 42 41 41 40 40 39 37 37 36 36 36 36 35 35 35 36
53 52 52 51 51 51 51 51 50 49 49 48 48 47 46 47 46 46 45 44 43 43 43 42 42 41 40 40 38 38 37 36 36 36 36 36 36 36
54 53 53 53 53 52 52 51 51 50 49 49 49 48 48 48 48 47 46 45 45 44 44 43 42 41 41 40 40 39 39 38 37 36 36 36 36 36
54 53 53 52 52 51 51 52 52 51 50 49 49 49 49 48 48 47 46 45 45 44 44 43 43 42 42 42 41 40 39 39 38 38 37 36 35 35
53 52 52 52 51 51 51 51 52 52 50 49 49 49 48 47 47 47 46 45 45 45 44 44 44 43 43 43 42 41 41 40 39 39 38 37 36 35

GEFSNE_500_meanwind_156.txt.gz
Wind_Speed
10 10 9 8 7 7 7 6 7 8 9 11 12 13 14 16 17 18 19 20 20 21 22 23 25 25 26 26 26 26 26 26 25 26 26 26 26 26
11 10 10 9 9 8 9 9 9 9 10 11 12 13 15 16 17 18 19 20 21 22 23 24 25 26 26 27 27 28 28 28 27 27 27 28 28 27
12 11 11 10 10 10 10 10 10 10 11 11 13 14 15 16 18 18 18 20 21 22 23 24 26 27 27 28 29 29 28 28 28 28 28 27 28 28
13 12 12 12 12 12 12 12 12 12 12 12 13 14 16 17 18 19 20 20 21 23 24 25 26 27 28 29 29 29 28 28 28 28 29 29 29 29
14 14 14 14 14 14 14 14 14 14 14 14 15 16 17 18 19 20 21 21 22 23 24 25 26 27 28 28 29 29 29 30 30 30 30 30 30 31
17 17 17 16 16 16 16 16 17 17 17 17 17 18 18 19 21 21 22 23 23 24 25 26 27 28 29 29 30 30 31 31 32 32 31 32 32 31
19 19 19 19 19 18 18 18 18 19 19 19 20 20 20 21 22 23 24 25 25 26 27 27 28 29 30 31 31 31 32 32 33 32 32 33 33 33
22 21 21 21 21 21 20 20 20 21 21 21 21 22 22 23 24 24 25 26 26 27 28 28 30 30 31 31 32 32 33 33 33 34 33 33 33 33
24 24 24 24 24 24 23 23 23 23 23 23 23 23 23 24 24 25 25 26 27 28 29 29 30 30 31 32 32 31 32 33 33 33 34 33 33 33
26 26 26 26 26 26 25 25 25 25 25 25 25 25 25 25 25 26 26 27 27 29 30 29 30 31 31 32 33 33 33 33 33 34 35 36 35 35
28 28 28 28 28 28 28 28 27 28 28 28 28 28 27 28 28 28 28 28 28 29 31 31 32 33 33 33 33 34 34 35 35 35 35 36 37 37
31 31 31 31 31 31 31 31 31 31 31 31 32 31 31 31 31 31 31 31 31 32 33 33 34 35 35 35 35 35 35 36 37 36 36 37 37 37
34 34 34 34 34 35 35 34 34 34 34 34 35 35 35 35 35 35 35 35 35 35 35 36 36 37 37 37 37 37 37 37 38 39 38 38 38 38
37 37 38 38 38 38 38 38 38 38 37 38 37 38 38 39 39 39 38 38 37 37 37 38 38 38 39 39 39 39 39 38 38 39 39 39 39 39
40 41 41 41 41 41 42 42 42 41 41 41 40 41 41 41 41 41 41 40 39 39 39 40 40 40 40 41 41 41 41 40 40 40 40 41 41 41
44 44 44 45 45 45 45 45 45 45 44 44 43 43 44 44 43 43 43 43 42 41 42 43 43 42 42 42 43 43 43 41 41 42 42 42 41 41
48 48 48 48 48 49 49 49 48 48 48 47 47 47 47 47 46 46 46 46 45 44 44 44 44 44 44 44 44 44 43 43 42 42 42 42 42 42
51 51 51 51 52 51 51 51 51 51 51 50 50 50 50 50 49 49 49 48 48 47 46 46 46 46 46 46 46 45 45 45 44 43 43 42 42 42
53 53 53 53 53 53 52 53 53 53 53 53 53 52 52 52 52 52 51 51 50 50 49 49 49 48 48 48 47 47 46 46 45 44 44 43 42 42
54 54 54 55 55 54 54 55 54 54 54 54 54 53 53 54 54 53 53 53 52 52 51 51 50 49 48 49 48 48 48 47 46 45 44 43 43 42
56 56 57 57 56 56 56 56 56 55 55 54 54 54 54 54 54 54 53 53 53 52 51 51 50 49 49 50 49 48 48 47 47 46 45 45 44 43
58 58 58 58 57 57 57 56 55 54 54 54 54 53 52 53 53 53 53 53 52 52 51 51 49 49 49 49 48 48 47 47 46 45 45 45 45 45
57 57 57 57 56 55 55 54 52 51 51 51 51 51 51 50 51 51 52 51 51 50 49 49 48 48 48 47 47 46 46 46 45 44 43 43 43 42

GEFSNE_500_meanwind_162.txt.gz
Wind_Speed
8 8 7 7 7 7 7 8 8 9 10 10 12 13 14 15 15 16 17 18 18 20 21 22 22 23 23 24 24 25 27 28 28 28 29 29 29 29
9 9 8 8 8 8 8 8 9 9 10 11 12 14 15 15 16 17 18 19 20 20 21 22 23 24 25 25 26 27 28 27 28 29 28 28 29 29
10 10 10 10 10 9 9 10 10 10 11 12 13 14 15 16 17 18 19 20 21 22 22 23 23 24 26 26 27 28 28 28 29 29 30 30 30 29
12 11 11 11 12 12 12 12 12 12 13 13 14 15 16 17 18 19 20 21 22 23 24 25 25 25 26 27 28 28 29 29 29 30 30 31 31 31
14 14 14 14 14 14 14 14 14 15 15 16 16 17 18 19 20 20 20 21 22 23 24 26 26 27 27 27 28 29 30 30 30 31 31 32 33 33
16 16 16 17 17 17 17 17 17 17 18 18 19 19 20 21 22 22 22 23 24 24 25 26 27 28 28 28 29 30 31 31 31 31 32 32 33 34
19 19 19 19 19 19 19 19 20 20 20 21 22 22 22 23 24 25 25 25 26 26 27 27 28 29 30 30 30 31 31 32 32 32 32 33 33 34
22 22 22 22 22 21 21 21 22 22 23 23 24 24 25 26 26 27 28 28 28 28 29 29 30 31 31 32 32 32 32 32 32 33 33 34 35 35
24 24 24 24 24 24 24 24 24 24 25 26 26 27 27 28 28 29 29 30 30 30 30 30 31 32 32 32 33 33 34 34 34 35 35 36 36 36
26 26 26 27 27 27 27 26 27 27 28 28 29 29 30 30 30 30 31 31 32 32 32 32 32 32 32 33 34 34 35 36 36 36 36 37 37 37
29 29 29 29 30 30 30 30 30 30 31 31 32 32 32 32 33 33 33 33 33 34 34 33 33 34 34 34 36 37 37 38 38 39 39 39 39 38
32 32 33 33 33 33 34 34 34 34 34 34 34 35 35 35 36 36 36 36 36 35 36 36 36 36 36 36 37 38 40 40 41 41 41 41 41 40
35 36 36 36 37 37 38 38 38 38 37 37 37 37 38 38 39 39 39 39 39 38 39 39 39 39 39 39 39 40 41 42 43 43 44 44 43 42
39 39 39 40 40 40 41 41 41 41 41 41 41 41 41 41 42 42 42 42 42 42 42 42 42 42 42 42 42 42 43 44 45 45 45 45 45 44
41 42 42 43 43 43 43 43 44 44 44 44 44 45 45 45 45 45 45 45 45 45 45 45 45 45 45 45 45 44 44 44 45 46 46 46 46 46
43 44 44 45 45 45 46 46 46 47 47 48 48 48 48 49 49 49 49 49 48 48 48 48 48 48 48 47 47 46 46 46 45 46 47 47 47 47
45 46 47 47 47 47 47 47 48 48 49 50 50 51 51 51 52 52 52 52 51 51 51 51 51 51 51 50 50 49 48 47 47 47 48 49 49 49
48 48 48 49 49 49 49 49 50 50 51 52 52 53 53 53 53 53 54 53 53 54 54 53 53 53 53 52 52 51 51 50 49 49 49 50 50 49
51 51 51 51 51 51 52 52 52 52 53 54 54 55 55 54 54 54 55 55 55 55 56 55 55 55 55 54 53 53 52 52 51 51 51 51 50 50
53 53 54 54 54 54 54 55 55 55 55 56 56 56 56 56 56 56 56 56 56 56 56 55 55 55 55 55 54 53 53 53 52 52 52 52 52 51
55 55 56 56 57 57 57 57 56 56 56 56 55 55 55 55 55 55 55 55 55 54 54 54 54 54 55 55 55 53 53 53 53 53 53 53 53 52
56 57 57 58 58 58 58 57 57 55 54 54 54 54 54 54 53 53 53 53 53 53 53 52 52 53 53 53 53 53 52 51 52 52 52 52 52 52
57 57 57 57 56 55 54 54 54 53 52 52 52 52 52 52 52 51 51 51 51 51 51 50 50 50 51 51 51 51 49 49 49 49 49 49 49 49

GEFSNE_500_meanwind_168.txt.gz
Wind_Speed
10 10 10 9 9 9 9 9 9 9 10 10 10 10 12 13 14 15 15 15 16 16 16 16 17 18 19 19 20 20 21 23 24 25 26 26 26 26
11 11 11 11 11 11 11 11 11 11 11 11 11 12 12 13 14 15 16 16 18 18 17 18 18 18 19 20 21 22 22 23 24 25 26 27 27 28
12 12 12 12 12 13 13 13 13 13 13 13 13 14 14 15 15 16 17 18 18 19 19 20 20 20 21 22 23 24 24 24 25 25 26 27 27 28
14 14 14 14 14 14 14 14 14 15 15 15 15 16 17 17 17 17 18 19 20 20 21 22 23 23 23 24 24 25 26 27 26 26 27 27 28 28
16 16 16 16 16 16 16 17 17 17 17 17 18 18 19 19 19 20 20 21 22 22 23 23 25 25 25 26 27 28 28 28 28 28 29 29 30 30
18 18 18 18 19 18 19 19 20 20 20 20 20 21 21 21 22 22 23 23 24 25 25 26 27 27 28 28 29 30 30 31 31 31 31 31 32 31
20 20 20 21 21 21 22 22 23 23 23 23 23 23 23 24 24 25 25 26 27 28 28 29 29 30 30 30 31 32 32 32 32 33 33 33 33 33
22 23 23 23 24 24 24 24 25 25 25 25 25 26 26 26 27 27 27 28 28 29 30 31 32 32 33 33 33 34 34 35 35 35 34 34 34 34
25 25 26 26 26 26 26 26 26 27 28 28 28 28 29 29 29 29 30 31 31 31 32 32 33 34 35 35 35 36 36 36 37 37 36 37 36 36
27 27 27 27 27 28 28 29 29 29 30 31 31 32 32 33 33 33 33 33 34 34 35 35 35 35 35 36 36 37 37 37 38 38 39 39 39 38
29 30 30 30 30 31 31 31 31 32 33 33 34 34 35 36 36 37 37 37 37 37 38 38 38 38 38 37 37 38 38 39 39 39 39 40 40 40
32 32 32 33 33 34 34 34 34 35 35 35 36 37 37 38 40 41 41 41 41 41 41 42 41 41 40 40 40 39 40 40 40 41 41 41 41 41
35 35 35 35 35 36 36 37 37 37 38 38 39 39 40 41 41 42 43 44 44 44 44 44 44 44 44 43 42 42 42 42 43 43 43 43 44 44
36 37 37 37 37 38 38 39 40 40 41 41 41 42 42 42 43 43 44 45 45 46 46 47 47 47 47 47 46 45 45 45 45 45 46 45 45 46
38 39 39 40 41 41 42 42 42 43 43 44 44 44 45 45 46 46 47 48 48 49 49 49 50 50 50 49 49 48 48 48 47 47 47 47 47 47
41 42 42 43 44 44 44 44 44 45 46 47 48 48 48 49 50 50 51 51 51 51 51 52 52 52 52 52 51 51 51 51 50 50 49 49 48 48
44 44 45 46 46 46 47 47 48 48 49 50 51 51 51 52 52 52 53 53 53 53 52 53 54 54 54 54 54 53 53 53 53 53 52 51 50 50
47 47 48 48 48 49 50 50 51 52 53 54 54 54 54 54 54 54 54 54 54 54 54 54 55 55 55 54 54 54 54 53 54 55 55 54 53 52
49 49 50 50 51 52 53 54 54 55 55 56 56 56 56 55 55 55 55 55 55 55 55 55 56 56 56 54 53 53 53 54 54 55 55 55 54 54
50 51 51 52 52 54 55 56 56 56 56 57 57 56 55 54 54 53 53 53 53 53 53 54 54 55 55 54 52 51 52 53 54 54 54 54 54 54
51 52 52 53 54 54 55 56 56 56 56 56 55 54 53 52 51 50 51 51 51 52 52 51 51 51 51 51 50 49 50 51 52 52 52 52 52 52
52 53 53 54 55 55 56 55 55 55 54 54 53 52 51 50 49 49 49 49 49 49 48 48 48 48 48 49 48 48 49 49 49 50 50 51 51 50
53 53 54 55 55 55 55 54 53 53 52 51 50 49 48 48 47 47 47 47 48 47 46 45 45 45 45 46 47 47 48 48 47 47 47 48 48 49

GEFSNE_500_meanwind_174.txt.gz
Wind_Speed
9 9 9 9 9 9 9 9 9 10 10 10 11 11 13 14 15 16 17 17 17 18 18 18 20 21 21 22 23 24 24 26 26 26 26 27 28 28
11 10 10 10 10 11 11 11 11 11 11 11 12 13 14 15 16 17 18 19 19 18 19 19 20 22 22 23 25 25 25 27 28 28 28 29 29 30
13 13 13 13 13 13 13 13 13 13 13 13 14 14 15 16 17 18 19 19 20 20 21 21 22 22 23 24 26 26 27 28 29 30 30 30 30 30
15 15 15 15 15 15 15 15 15 16 16 16 16 17 17 18 18 19 20 21 21 22 22 23 24 24 23 24 25 26 27 27 29 30 31 31 32 32
17 17 17 17 17 17 17 17 17 18 19 19 19 19 20 20 21 21 22 23 24 24 25 25 26 26 25 25 26 27 27 28 29 30 31 33 33 33
18 18 19 19 19 19 19 19 20 21 21 21 21 22 22 23 23 23 24 25 25 26 27 28 28 29 29 28 28 29 30 30 31 32 33 34 34 35
20 20 20 21 21 21 22 22 23 23 23 24 24 24 24 25 25 25 26 26 27 28 28 29 30 31 32 32 32 32 33 33 34 35 35 36 36 37
21 22 22 23 23 24 24 24 25 25 25 26 26 27 27 27 27 28 28 29 29 29 30 31 31 32 34 35 35 36 36 37 37 38 38 38 38 39
23 24 24 25 26 26 27 27 27 28 28 29 29 29 29 29 30 30 31 31 32 32 33 33 34 35 36 37 38 38 39 40 40 41 41 42 42 42
26 26 27 27 28 28 29 30 30 30 30 30 31 31 32 32 32 33 33 34 35 36 36 36 37 38 39 40 41 41 41 42 43 44 44 44 45 45
28 29 29 30 30 31 32 32 32 33 33 33 33 33 34 34 35 35 36 37 37 38 40 40 40 41 41 42 43 44 45 45 46 46 47 47 47 47
30 31 32 33 33 33 34 34 34 35 35 36 36 37 37 38 39 39 40 40 41 42 43 44 45 45 45 45 47 48 48 49 49 49 50 50 50 50
33 34 34 35 35 36 36 36 36 37 37 38 39 40 40 41 42 43 43 44 45 45 46 48 48 49 50 49 49 50 51 51 51 51 52 52 52 52
36 36 37 37 38 38 39 39 40 40 41 41 42 42 43 44 44 45 46 46 47 48 49 49 50 51 52 52 51 51 52 53 53 53 53 54 54 54
38 39 40 40 41 41 42 42 43 43 43 43 44 45 46 47 47 48 49 49 49 50 51 52 53 53 54 54 54 54 54 54 55 55 55 55 55 55
41 42 42 43 44 44 45 45 45 45 45 46 47 48 49 50 51 51 51 51 52 52 53 54 55 55 54 55 56 56 56 55 55 56 57 56 56 57
43 44 45 45 46 46 46 46 47 47 48 49 49 50 51 52 53 54 54 55 55 54 54 55 56 57 56 55 55 55 55 55 55 55 55 55 55 56
45 45 46 46 47 47 48 48 49 49 50 51 51 52 53 54 54 55 56 56 56 56 55 55 56 56 56 54 55 55 54 54 53 54 55 55 54 54
47 47 48 48 49 49 50 50 50 51 52 53 54 55 56 56 56 56 56 56 56 55 55 55 55 55 55 53 51 53 54 54 53 53 53 54 53 53
49 49 49 50 50 51 52 52 52 53 53 54 55 56 57 57 57 57 56 55 55 54 53 53 53 54 54 53 50 50 52 53 53 52 52 52 52 52
50 50 50 51 51 52 52 53 54 54 55 55 56 56 57 57 56 56 55 55 54 53 52 51 51 52 53 52 51 49 49 51 52 51 50 50 50 50
50 51 52 52 52 52 52 53 54 54 55 55 55 55 55 55 54 54 54 53 52 51 50 49 49 50 51 51 50 49 48 48 49 50 50 49 49 49
51 52 52 52 52 52 52 52 53 53 54 54 54 53 53 52 51 50 50 49 49 49 48 47 46 46 47 47 47 47 46 46 46 47 47 46 46 46

GEFSNE_500_meanwind_180.txt.gz
Wind_Speed
10 11 11 11 12 12 12 12 12 12 13 14 14 14 15 16 17 18 19 19 20 20 21 21 22 23 24 25 26 27 27 28 28 29 29 29 29 29
11 12 13 13 13 13 14 14 14 14 15 15 15 16 16 17 17 19 20 21 22 22 23 23 24 25 26 27 28 28 28 29 29 29 30 30 31 32
13 13 14 14 14 14 15 15 15 16 16 16 17 17 18 18 19 20 21 22 23 24 25 26 26 27 27 27 28 29 29 30 31 31 32 33 33 33
14 15 16 16 16 16 17 17 17 18 18 18 19 19 20 20 21 22 23 24 25 26 27 27 28 28 28 28 30 31 31 32 32 33 34 34 35 35
16 17 17 17 17 18 18 19 19 19 20 20 21 21 22 23 24 24 25 26 27 28 29 30 30 30 31 32 32 33 34 35 35 35 35 35 36 36
18 18 19 19 19 20 20 20 21 21 22 23 23 24 25 26 26 27 28 28 29 30 31 32 32 32 33 33 33 34 35 36 36 36 37 37 38 38
19 20 20 21 21 22 22 23 23 24 24 25 26 27 27 28 29 29 30 30 31 31 32 33 33 33 34 35 35 35 36 37 38 38 39 40 40 40
21 21 22 23 23 24 25 25 26 27 27 28 28 29 29 30 30 31 31 32 32 33 33 33 34 34 35 36 37 37 38 38 39 40 40 41 42 43
23 23 24 24 25 26 27 28 28 29 30 30 30 31 31 32 32 33 33 33 34 34 34 35 35 37 38 38 39 40 41 42 42 42 42 43 44 45
24 25 26 27 27 28 29 30 30 31 31 32 32 33 33 34 35 35 36 36 37 37 37 37 38 39 40 42 43 44 44 45 45 45 46 45 46 46
27 28 29 30 31 31 32 32 33 33 34 34 35 36 37 37 37 38 38 39 39 40 41 41 42 43 43 44 46 47 48 48 49 49 50 50 50 50
30 31 31 33 34 35 35 35 36 36 37 37 38 39 39 40 40 40 41 41 42 42 43 45 45 46 46 47 48 49 50 51 51 52 53 53 54 54
32 33 34 35 36 37 38 38 39 39 40 40 41 42 42 43 43 44 44 45 45 46 47 48 49 49 50 49 49 50 52 53 54 55 55 56 57 58
35 36 37 38 39 39 40 40 41 41 42 43 44 44 45 45 45 46 47 48 49 49 50 51 52 52 52 52 52 52 53 55 56 57 57 58 59 59
37 38 38 39 40 41 41 42 43 43 44 45 46 47 48 48 48 48 49 50 50 51 52 53 54 54 54 54 55 55 55 55 56 57 58 59 59 60
38 39 40 41 42 43 44 44 45 46 47 48 48 49 50 50 51 51 51 52 52 53 54 55 55 55 55 56 56 56 57 57 57 58 59 59 60 61
40 41 43 44 45 45 46 46 47 48 49 50 50 51 51 52 52 53 54 54 54 54 55 56 57 57 57 57 57 57 58 58 58 58 59 58 58 59
43 44 45 46 47 47 47 48 49 50 51 52 52 52 53 53 53 54 55 55 55 55 56 56 57 58 57 56 57 57 57 57 57 57 57 57 55 55
45 46 46 47 48 49 49 50 50 51 52 52 53 53 53 53 54 54 55 55 56 56 57 57 57 57 56 54 53 55 56 55 55 54 53 53 52 51
47 47 48 49 50 50 50 51 51 52 52 52 53 53 53 54 54 54 55 55 56 56 55 54 54 54 54 54 52 51 52 53 52 52 51 50 50 50
48 48 49 50 50 51 51 51 52 52 52 52 52 53 53 53 53 54 55 55 55 55 53 51 51 52 52 52 50 48 48 50 50 50 49 49 48 48
49 50 51 51 51 51 51 51 51 52 52 52 52 53 53 53 54 55 55 55 54 53 52 51 51 51 51 50 49 48 46 46 46 46 46 46 46 45
50 51 51 51 51 51 51 51 52 52 52 52 52 52 53 53 53 54 54 53 52 51 50 49 49 48 48 48 48 46 45 44 43 42 42 43 43 43

GEFSNE_500_meanwind_186.txt.gz
Wind_Speed
7 7 8 9 9 10 10 11 12 12 13 14 14 15 16 17 17 18 19 20 21 22 22 22 23 24 25 25 27 28 29 30 30 31 32 32 32 32
9 9 10 11 11 12 12 13 13 14 14 15 16 16 17 18 18 19 20 21 22 23 24 25 25 26 26 27 28 29 30 31 31 32 33 34 35 35
11 11 12 12 13 13 14 15 15 16 16 17 18 18 18 19 20 21 21 22 24 25 26 27 28 29 30 30 30 31 32 33 33 33 34 35 36 36
13 13 14 14 15 15 16 16 17 18 18 19 20 20 21 22 22 23 24 25 26 26 27 28 29 30 31 32 32 33 34 34 35 36 36 37 37 37
14 15 15 16 16 17 18 18 19 20 21 21 22 22 23 24 25 26 26 27 28 28 29 30 31 31 32 33 34 34 35 35 35 36 37 38 39 40
15 16 16 17 18 19 20 21 21 22 23 24 24 25 26 27 28 29 29 29 30 31 32 32 33 33 33 34 35 35 36 36 37 37 38 40 41 41
16 17 18 19 20 21 22 23 23 24 25 26 27 28 29 29 30 31 31 32 32 32 33 33 34 34 35 36 37 37 38 39 39 40 41 42 42 43
18 19 20 21 22 23 24 25 26 27 27 28 29 30 31 31 32 32 33 33 34 34 35 35 36 36 37 38 38 39 40 41 42 43 43 44 45 46
20 21 22 23 24 25 26 27 28 29 30 30 31 32 33 33 33 34 34 35 36 36 37 37 38 39 40 41 42 43 44 45 46 46 46 47 48 48
22 23 24 25 26 27 28 29 30 31 32 33 34 35 35 36 36 36 37 38 39 39 40 40 41 42 43 44 45 46 47 48 49 50 50 50 51 51
25 26 27 28 29 30 31 31 32 34 34 35 36 36 37 38 38 39 40 40 41 42 42 43 44 44 45 46 48 49 50 50 51 52 52 53 53 54
27 28 30 31 31 33 33 34 35 36 36 37 37 38 38 39 40 42 43 44 44 44 44 45 46 47 47 47 49 50 51 52 52 53 54 55 56 56
30 31 32 33 34 35 35 36 37 38 38 39 39 40 41 42 44 45 46 46 47 47 47 48 48 49 50 50 51 52 53 53 54 55 56 57 58 58
32 33 34 35 36 36 37 37 38 40 40 41 42 43 44 45 46 47 47 48 48 49 49 50 51 51 52 53 53 53 54 55 56 57 58 58 58 59
34 35 36 36 37 37 38 40 41 42 43 44 45 45 46 47 48 48 49 49 50 50 51 52 53 53 54 54 55 55 56 56 57 58 58 57 57 58
36 36 37 37 38 39 40 42 43 44 45 46 46 47 48 48 49 49 50 50 51 51 52 53 54 54 55 55 56 57 58 57 56 56 56 56 56 56
37 38 38 39 40 41 43 45 46 47 47 48 48 49 49 50 50 51 51 51 51 52 52 53 54 55 56 57 57 57 57 56 56 55 55 54 54 54
39 39 40 41 43 44 46 47 48 49 49 49 50 50 50 51 51 51 52 52 52 53 54 54 55 55 56 56 56 56 55 54 53 53 53 53 52 52
40 41 42 44 45 46 47 48 49 50 50 50 50 50 50 51 51 52 52 52 53 53 53 54 54 55 54 54 52 53 52 51 50 49 49 50 50 49
42 43 44 45 47 48 49 49 50 50 50 50 50 50 51 51 51 52 52 52 52 52 52 52 53 53 52 51 49 48 48 49 47 46 46 46 46 46
43 44 45 47 48 49 49 50 51 51 51 51 50 51 51 51 51 51 51 51 51 51 51 51 51 51 50 48 47 45 45 45 46 44 44 44 44 43
44 45 47 48 49 49 50 51 51 51 51 51 50 51 51 51 50 50 49 49 50 50 50 50 49 48 47 46 45 44 43 42 42 42 42 42 42 42
45 46 47 48 49 50 51 51 51 50 50 50 50 50 50 50 49 48 49 49 48 48 48 48 47 46 46 45 44 43 42 41 41 40 41 41 41 41

GEFSNE_500_meanwind_192.txt.gz
Wind_Speed
9 9 9 10 11 12 13 13 13 13 13 14 14 15 16 16 16 17 17 18 18 19 20 21 22 23 24 25 25 26 26 27 28 29 29 30 32 32
9 10 10 11 12 12 13 14 14 15 15 15 16 16 17 18 19 19 20 20 20 21 22 23 24 25 26 27 28 28 28 29 30 31 31 32 32 33
10 11 12 13 13 14 14 15 16 16 17 17 17 18 19 20 20 21 22 22 23 23 24 25 26 27 28 29 30 30 31 31 31 32 33 33 34 34
12 12 13 14 15 15 16 17 17 18 19 19 20 20 21 22 22 23 24 24 25 26 27 27 28 29 30 30 31 31 32 32 32 33 34 34 35 36
14 14 14 15 16 17 18 18 19 20 20 21 22 22 23 24 24 25 25 26 27 28 29 29 29 30 31 32 32 33 33 34 34 34 35 36 36 37
15 16 16 16 17 18 19 20 20 21 22 23 24 25 26 26 27 27 27 28 29 29 30 31 31 32 33 34 35 35 35 36 36 37 37 38 39 39
17 17 17 18 19 19 20 21 22 23 24 25 26 27 27 28 29 29 30 30 31 31 32 33 33 34 35 36 37 38 38 38 39 39 40 41 42 43
18 19 19 19 21 22 23 24 24 25 26 27 28 29 30 30 31 31 32 32 33 34 35 35 36 36 37 38 38 39 40 41 41 41 42 43 44 44
20 20 21 21 22 24 24 25 26 27 28 29 30 31 32 33 33 34 34 35 35 36 37 38 39 39 40 40 41 42 42 43 44 44 44 45 46 47
21 22 23 23 24 25 26 27 28 29 30 31 32 33 34 35 36 36 37 38 38 39 40 40 41 41 42 43 43 44 45 45 46 46 46 47 47 49
22 23 24 25 27 28 29 30 30 32 32 34 35 36 36 37 38 39 40 41 41 41 42 43 43 43 44 45 45 46 46 47 47 48 48 49 49 50
24 25 26 27 29 30 31 32 32 34 35 36 37 37 38 39 40 42 43 44 44 44 44 45 46 46 46 46 47 47 48 48 49 50 51 51 52 52
26 27 28 29 31 32 33 34 35 36 37 38 38 39 40 42 43 45 45 46 46 46 47 48 48 48 48 47 47 48 49 50 51 52 53 53 53 53
27 29 30 31 33 34 35 36 37 37 38 39 40 41 43 44 45 45 46 47 48 49 49 50 50 50 50 49 48 49 51 52 53 53 53 53 53 54
29 31 32 33 34 36 37 37 38 39 40 41 42 44 45 46 46 46 46 47 48 49 49 50 50 50 50 50 50 50 50 51 52 53 53 54 54 54
32 33 34 35 36 37 38 39 40 41 42 43 44 46 47 47 47 47 47 48 48 48 49 50 50 51 51 51 51 51 51 52 52 53 53 53 53 53
34 35 36 37 38 39 40 41 42 43 43 44 46 47 47 47 47 48 48 49 49 49 49 50 51 51 51 52 51 51 51 51 52 52 51 50 49 49
35 36 37 38 39 40 41 42 43 44 45 46 47 48 48 48 49 49 49 50 50 50 50 50 50 50 49 50 51 51 50 50 50 49 49 48 46 46
37 37 39 40 41 41 42 43 45 46 47 47 48 49 49 49 49 50 50 50 50 50 50 50 50 50 50 48 48 50 50 49 48 47 45 45 44 44
39 40 41 42 42 43 44 45 46 47 48 48 49 49 49 49 49 49 49 49 49 50 50 50 50 50 50 49 48 47 49 49 47 46 44 43 43 43
40 42 43 43 44 45 46 46 47 47 48 48 49 49 50 50 49 49 49 49 49 49 48 48 48 49 49 49 48 47 47 47 47 46 45 43 43 42
42 43 43 44 45 46 46 46 47 47 48 49 49 49 50 50 49 48 48 48 48 47 47 47 47 48 49 49 48 47 46 45 44 44 45 45 44 42
43 44 45 45 46 47 46 46 47 48 49 49 49 49 49 49 48 47 47 48 47 47 47 47 47 47 48 48 48 47 46 45 44 43 42 43 43 42

GEFSNE_500_meanwind_198.txt.gz
Wind_Speed
7 7 7 7 8 8 9 9 10 11 11 12 12 13 14 14 15 15 15 16 17 18 19 19 20 21 21 22 23 24 24 25 26 28 29 29 30 31
8 8 9 9 10 10 11 11 12 12 13 14 14 15 16 16 16 17 18 18 19 20 21 22 22 23 24 25 26 26 27 28 29 30 30 31 31 32
10 10 11 12 12 12 12 13 14 14 15 16 16 17 17 17 18 19 20 21 21 22 23 23 24 25 26 27 28 29 29 30 31 31 32 32 33 33
12 12 13 13 13 14 14 15 15 16 16 17 18 18 19 20 20 21 22 23 24 24 25 26 27 27 28 29 30 31 31 32 32 33 34 34 35 35
14 14 14 14 15 15 16 16 17 18 19 19 20 21 22 22 23 23 24 25 26 26 27 28 29 30 31 31 32 33 34 35 35 36 36 36 37 38
15 15 15 16 17 17 17 18 19 20 20 21 22 23 24 25 25 26 27 27 28 29 30 31 32 33 34 35 35 36 37 38 39 39 40 40 40 40
16 16 17 18 18 19 19 20 21 21 22 23 24 25 26 27 28 29 29 30 31 32 33 34 35 36 37 37 38 39 39 40 41 42 42 42 43 43
18 18 19 19 20 20 21 22 23 23 24 25 26 27 28 29 30 31 32 32 33 34 36 37 38 38 38 39 39 40 41 41 42 42 43 44 44 45
19 19 19 20 21 22 23 24 24 25 26 27 28 29 30 31 32 34 35 35 37 38 38 39 40 40 40 41 42 43 43 44 45 45 45 46 46 47
19 20 21 22 23 24 25 26 27 28 28 29 31 32 33 34 35 36 37 38 39 40 41 41 41 42 43 44 45 45 46 46 47 47 47 47 48 49
21 22 23 23 24 25 26 28 29 30 31 32 33 34 36 37 38 39 39 40 41 41 42 43 43 44 45 46 46 47 47 48 49 49 49 50 50 51
22 23 24 25 25 27 28 30 31 32 33 34 35 36 37 39 40 41 41 42 43 43 44 45 46 46 46 46 47 48 48 49 50 51 52 52 53 53
23 24 24 26 27 28 30 31 32 33 35 35 36 38 39 40 41 42 43 44 45 45 46 47 47 48 48 47 48 49 50 50 51 52 53 53 53 54
25 26 27 28 29 31 32 33 34 35 36 37 38 40 40 42 43 44 45 45 46 47 47 48 48 48 49 48 49 49 50 51 52 52 53 53 53 54
26 27 28 30 32 33 34 35 36 38 39 40 41 42 43 44 45 46 46 46 46 47 48 48 49 49 50 50 50 50 51 50 51 52 52 53 53 53
27 28 30 32 33 35 36 38 39 40 41 42 42 43 45 46 46 46 46 46 46 47 48 49 50 50 50 50 50 50 51 51 51 51 52 52 52 52
29 31 32 34 36 37 38 39 40 41 42 43 44 45 45 46 46 47 47 47 47 48 48 49 50 50 50 50 50 50 50 50 51 51 51 51 51 51
31 32 34 35 37 38 40 41 42 42 43 44 45 46 46 47 47 48 48 48 48 49 49 49 49 49 48 48 50 50 50 50 50 50 50 49 48 48
33 34 36 37 38 40 40 41 42 43 44 45 46 46 47 48 48 48 48 48 48 48 48 49 49 48 47 46 47 50 50 49 49 49 49 48 47 47
35 36 37 39 40 41 41 41 42 44 44 45 46 47 48 48 48 48 47 48 48 48 48 48 48 48 48 48 47 47 49 50 49 48 47 47 47 47
37 38 39 40 41 41 42 43 44 45 45 46 47 47 48 48 48 47 47 47 47 47 47 47 47 48 48 48 48 46 47 48 48 48 48 48 47 46
39 40 41 41 42 42 43 44 45 45 46 46 47 48 48 48 48 47 47 47 47 47 46 46 46 47 48 48 48 47 46 47 47 48 49 49 48 46
41 41 42 42 43 44 44 45 45 46 47 47 48 48 48 48 47 47 47 47 46 46 46 46 46 48 48 48 47 47 47 47 46 46 46 47 47 46

GEFSNE_500_meanwind_204.txt.gz
Wind_Speed
8 8 8 9 9 9 10 10 11 11 12 13 14 14 14 15 15 16 17 17 17 17 18 19 20 20 21 22 23 24 25 26 27 28 28 29 29 30
9 9 10 10 10 10 11 11 12 13 14 14 15 15 15 16 17 17 18 18 19 19 20 21 22 23 23 24 25 26 27 28 29 29 30 30 30 31
10 11 11 11 11 12 13 13 14 15 15 16 16 17 17 18 19 19 20 20 21 22 22 23 24 25 26 27 27 28 29 29 29 30 32 33 33 33
12 12 12 12 13 14 14 15 16 16 17 17 18 18 19 20 20 21 22 23 23 24 25 26 27 28 28 29 30 31 31 31 32 33 34 35 36 36
13 13 13 14 14 15 16 16 16 17 18 19 19 20 20 21 22 23 24 25 26 27 28 29 30 30 31 32 33 34 35 35 36 36 37 37 37 38
14 14 15 15 16 17 17 18 18 19 19 20 21 22 22 24 25 26 27 28 29 30 31 32 33 34 35 36 36 37 37 37 38 38 38 38 38 39
16 16 17 17 18 18 18 19 20 21 22 23 23 24 25 26 27 28 29 30 31 32 33 35 36 37 37 38 39 39 39 39 39 39 40 40 40 41
17 17 18 19 19 19 20 21 22 23 24 24 25 26 27 28 29 30 31 32 33 35 36 37 38 39 40 41 41 41 41 42 42 42 43 43 43 44
19 20 20 20 21 21 22 23 24 25 26 27 27 28 30 31 32 33 33 34 35 37 38 39 40 41 42 42 43 43 43 43 44 44 45 46 46 47
20 21 21 21 22 23 24 24 25 27 28 29 30 31 32 33 34 35 35 36 37 39 40 41 42 43 43 44 44 44 44 45 45 46 47 48 48 49
21 21 22 23 24 25 26 26 27 28 30 31 32 33 35 36 36 37 38 39 40 41 42 43 43 44 44 44 45 45 45 46 46 47 48 49 50 50
21 22 23 24 26 27 27 28 30 31 33 34 35 36 37 38 38 39 41 42 42 43 44 45 45 45 44 44 45 45 46 47 48 49 49 50 51 51
22 23 25 26 27 28 29 30 32 33 35 36 36 37 39 40 41 42 43 44 44 45 46 47 47 47 47 46 46 47 48 48 48 49 50 51 52 53
24 25 26 28 29 30 31 32 34 35 36 37 38 39 40 41 42 43 43 44 45 46 48 48 48 48 48 47 47 47 48 49 49 50 51 51 52 53
26 27 28 29 31 32 33 35 36 37 37 38 39 40 41 42 43 44 44 45 47 48 49 50 49 49 48 48 48 48 48 49 50 50 50 51 51 52
27 28 29 31 32 33 34 35 36 37 38 39 40 41 42 43 45 45 46 47 48 49 49 49 49 49 48 48 48 48 49 49 49 50 49 49 50 50
28 29 31 32 33 34 35 36 37 38 39 40 41 42 44 45 45 46 47 48 49 48 48 49 49 49 48 48 48 48 48 48 49 49 49 48 48 49
30 30 31 32 33 34 36 37 38 39 40 41 42 44 44 45 46 47 48 48 48 48 48 48 49 48 47 46 47 48 47 47 47 48 48 47 46 46
31 31 32 33 34 35 36 38 39 40 41 42 43 45 46 46 47 47 48 48 48 48 48 48 48 47 45 45 46 47 47 46 46 46 46 47 46 46
32 33 33 34 35 37 37 39 40 41 42 43 44 46 46 46 47 47 47 48 48 47 47 47 46 46 45 45 45 46 47 47 47 46 46 47 46 46
33 34 35 36 37 38 39 40 42 43 43 43 44 45 46 46 47 47 47 47 47 46 46 45 45 46 46 46 45 45 46 47 48 47 47 47 46 46
34 35 36 37 38 39 40 41 42 43 43 43 44 45 45 46 46 46 46 46 46 46 45 45 45 45 46 46 46 46 45 46 46 47 48 48 47 47
36 36 37 38 39 40 41 42 43 43 43 43 44 44 45 46 46 46 46 46 46 46 46 45 45 46 46 46 47 47 46 45 45 45 46 47 48 47

GEFSNE_500_meanwind_210.txt.gz
Wind_Speed
8 7 7 8 8 8 9 9 10 10 11 11 12 12 13 13 14 15 15 16 16 16 17 18 19 19 21 22 23 24 25 26 26 27 28 29 30 30
9 8 8 9 9 9 10 10 11 11 12 12 13 13 14 15 16 16 17 17 18 18 19 20 20 21 22 23 25 26 27 28 29 30 31 31 32 33
10 10 10 10 11 11 11 11 12 13 13 14 14 15 16 16 17 17 18 19 20 20 21 22 23 24 25 26 27 28 29 30 32 33 34 35 35 35
12 12 12 12 12 12 12 12 13 14 14 15 16 16 17 18 18 19 20 21 21 22 23 24 25 26 27 29 30 31 32 33 34 35 36 37 37 38
13 13 13 13 13 14 14 14 14 14 15 16 17 18 19 20 20 21 22 23 23 24 26 27 28 29 30 31 32 33 34 35 36 37 37 38 38 38
15 14 14 14 14 15 15 15 16 17 18 18 19 20 21 22 23 23 24 25 26 27 28 29 30 32 33 34 35 36 37 38 38 38 39 39 39 39
16 16 16 16 17 17 17 17 18 19 20 21 21 22 23 24 25 26 27 28 28 29 30 31 33 34 35 36 37 38 39 40 40 40 40 40 40 41
17 18 17 18 18 19 19 20 21 22 22 23 23 24 25 25 26 27 28 29 31 32 33 35 36 37 38 39 40 41 42 42 42 42 42 42 42 42
19 19 19 19 20 21 21 22 23 23 24 25 25 26 26 27 28 29 30 32 33 35 35 37 38 39 40 41 42 43 43 43 43 43 44 44 44 45
20 20 21 21 21 22 22 23 24 24 25 26 27 28 29 29 31 32 33 34 35 37 38 39 40 41 42 43 44 44 44 44 44 44 45 45 46 46
21 22 22 22 22 23 24 24 25 26 27 29 29 30 31 32 33 34 35 36 37 38 39 40 41 43 43 44 44 44 44 44 44 45 45 46 47 47
22 22 22 22 23 24 25 26 27 28 29 30 31 32 33 34 35 36 37 38 39 40 41 42 43 44 44 44 45 45 46 46 46 46 46 46 46 47
21 22 22 23 24 25 26 27 28 29 30 32 33 34 35 35 37 38 39 40 41 42 43 44 45 46 46 44 45 46 46 46 46 46 45 45 46 46
22 22 23 24 25 26 28 28 29 31 32 33 34 35 36 37 38 40 41 41 42 43 45 46 46 46 46 45 46 45 45 45 45 45 46 46 46 46
22 23 24 25 26 28 29 30 31 32 33 34 35 36 37 39 40 41 42 42 44 45 45 45 46 46 46 46 45 45 45 45 46 46 46 46 46 47
23 24 25 26 27 29 30 31 32 33 34 35 36 37 39 40 40 41 42 43 44 45 45 45 45 45 45 45 44 44 45 45 46 46 46 46 47 47
23 25 26 27 28 29 30 31 33 34 35 36 37 38 39 40 40 41 43 44 45 45 45 45 45 45 44 44 44 45 46 46 47 47 47 47 47 47
24 25 26 27 28 29 31 32 33 34 35 37 37 38 39 40 41 43 44 44 45 45 45 45 44 44 45 45 46 46 47 48 48 48 47 47 47 47
25 26 28 29 29 30 32 33 34 35 36 37 38 39 40 41 42 43 43 44 44 44 44 44 45 45 46 46 47 48 49 49 49 48 47 47 46 46
27 28 29 30 31 32 33 34 35 36 37 37 38 39 40 41 42 42 43 43 43 44 44 45 45 46 46 47 48 49 49 49 49 48 47 46 45 45
29 30 31 32 32 33 34 35 35 36 37 38 39 40 41 42 42 42 43 43 44 44 44 45 46 46 47 48 49 48 48 49 49 48 47 46 44 43
30 31 32 33 34 35 35 36 36 37 39 39 40 40 41 42 42 43 44 44 45 45 45 46 46 46 47 47 48 48 48 48 47 47 46 45 44 42
32 32 33 34 35 35 36 37 37 38 39 39 40 40 40 41 42 43 45 45 45 45 45 46 46 46 46 47 47 48 48 47 45 44 44 43 43 42

GEFSNE_500_meanwind_216.txt.gz
Wind_Speed
9 9 9 9 9 9 10 10 11 11 11 11 11 12 13 14 14 15 15 16 16 17 17 18 19 20 21 21 21 22 23 24 24 25 26 27 27 28
10 10 10 10 10 10 11 12 12 12 12 13 13 14 14 15 15 16 17 17 18 19 19 20 21 22 23 23 23 24 24 25 26 27 28 29 29 29
12 12 11 11 11 12 12 13 13 13 14 14 15 15 16 16 17 17 18 19 20 20 21 22 22 22 23 23 24 25 26 27 27 28 29 30 30 31
13 13 13 13 13 13 14 14 14 14 15 16 16 17 18 18 18 19 20 20 21 22 22 23 24 24 25 25 27 27 28 29 30 31 32 32 33 34
14 15 15 15 15 15 15 15 15 16 16 17 17 18 19 20 20 21 22 22 23 23 25 25 26 27 28 29 29 30 31 32 33 34 34 35 36 36
15 16 16 17 16 16 16 16 17 17 18 19 19 20 21 21 22 23 24 24 25 26 27 28 29 30 31 32 33 34 34 35 36 37 37 38 39 39
17 17 17 17 18 18 18 18 18 19 19 20 21 22 22 23 23 24 25 26 27 28 29 30 31 32 33 35 36 37 38 38 39 40 40 41 41 42
18 18 19 19 20 20 20 20 21 21 21 22 22 22 23 24 24 26 27 27 29 30 31 31 32 34 35 36 37 38 39 40 41 42 42 42 43 44
18 18 19 20 21 21 21 21 22 22 22 23 23 24 25 26 27 28 29 30 31 31 32 34 35 36 37 38 39 40 41 41 42 43 43 44 44 45
18 20 21 21 22 22 22 22 23 23 24 24 25 26 27 28 28 29 30 31 32 33 34 36 37 38 39 40 41 41 42 42 43 44 44 45 45 45
20 21 21 22 23 23 23 24 24 25 25 26 26 27 28 29 30 31 31 32 34 35 37 37 38 39 40 41 42 42 43 43 43 44 44 44 45 45
20 21 22 22 23 23 24 25 25 25 26 27 28 29 30 31 32 32 33 34 36 37 38 39 40 41 41 42 43 43 43 43 44 43 44 44 44 45
21 21 22 23 23 24 24 25 25 26 27 28 29 30 31 32 33 34 35 37 38 39 40 41 42 42 43 42 43 43 43 43 43 43 43 44 45 46
22 22 23 24 24 25 26 26 27 27 28 29 30 31 32 33 34 35 37 38 39 40 41 42 43 43 43 43 43 42 42 43 43 43 44 45 47 48
22 23 24 24 25 25 26 27 28 28 29 30 31 32 33 34 35 36 37 39 41 42 43 43 43 43 43 43 42 42 42 43 44 44 45 47 48 48
23 23 24 24 24 25 26 27 28 29 30 31 32 33 34 35 36 37 39 40 41 42 43 43 44 43 43 42 42 42 43 44 44 45 46 47 48 48
24 24 24 25 26 26 27 28 28 29 30 31 33 34 34 35 37 38 39 40 42 43 43 43 43 43 42 41 42 43 44 44 45 46 46 46 47 47
24 25 25 26 27 28 28 29 30 31 32 33 34 35 36 37 38 39 40 41 43 44 44 43 42 41 41 42 43 44 44 45 46 47 48 47 46 46
26 26 27 27 28 29 30 30 31 32 33 34 35 36 37 38 39 40 42 43 44 44 44 43 42 42 42 42 43 45 46 46 47 47 47 47 46 45
27 28 28 29 30 30 31 32 33 33 34 35 36 37 38 39 40 41 42 43 44 44 44 43 43 43 43 43 44 45 47 48 47 47 47 46 45 44
28 29 30 31 31 32 33 33 34 34 35 36 38 38 39 40 41 42 43 44 44 44 44 43 43 44 44 44 45 45 46 48 48 48 47 45 44 43
30 30 31 32 33 33 34 34 35 35 36 38 38 39 39 40 41 42 43 44 44 45 44 43 43 44 44 44 45 45 46 46 47 47 47 47 45 44
31 31 32 33 33 34 35 35 36 36 37 38 39 40 41 42 42 43 44 44 44 44 44 44 43 44 44 44 45 45 46 46 45 45 45 45 45 44

GEFSNE_500_meanwind_222.txt.gz
Wind_Speed
9 9 9 9 9 9 9 10 11 11 11 11 12 12 12 13 13 13 14 14 14 15 15 16 17 18 18 19 19 19 20 21 22 23 24 24 25 26
10 9 10 10 10 11 12 12 12 13 13 13 13 14 14 15 15 15 15 16 16 17 18 18 19 19 20 21 21 22 23 24 25 25 26 26 27 27
12 12 11 12 12 13 13 13 14 14 14 14 15 15 15 16 16 16 16 17 18 18 19 19 20 21 22 23 23 25 26 26 27 27 28 28 28 29
13 13 13 13 14 15 14 14 15 15 15 16 16 16 16 17 17 17 17 18 18 19 20 21 22 23 24 24 25 26 27 28 29 29 30 31 31 32
14 14 14 15 15 15 15 16 16 16 16 16 17 17 18 18 19 19 19 20 21 22 22 23 24 25 26 27 28 29 30 30 30 30 31 32 33 34
15 15 16 16 16 16 17 17 17 17 17 18 18 19 19 19 20 20 21 22 23 23 24 25 26 27 28 30 31 31 31 31 31 32 33 34 35 35
16 16 16 17 17 17 17 18 18 18 19 19 19 20 20 20 21 21 22 23 24 25 25 27 28 29 31 31 31 31 31 32 33 34 35 36 37 38
17 17 18 17 17 18 18 18 19 20 20 20 20 20 21 21 22 22 23 24 25 26 27 29 30 31 32 32 32 32 33 34 35 36 37 38 39 40
18 19 18 18 19 19 20 20 20 20 20 21 21 22 23 23 24 24 25 26 26 28 29 30 31 33 33 33 34 34 35 36 38 39 39 40 40 41
19 19 19 20 20 19 19 20 20 21 21 21 22 23 24 25 25 25 26 27 28 30 31 31 32 34 35 35 36 37 38 39 40 40 40 40 40 40
19 20 20 19 19 19 20 20 21 22 22 22 23 24 25 25 26 27 27 29 30 31 32 33 34 35 36 37 38 39 40 40 40 40 40 40 41 41
20 20 20 20 20 20 21 21 22 23 24 24 25 25 26 26 27 28 29 30 32 33 34 35 36 37 37 39 40 40 40 40 41 41 41 41 42 42
21 21 21 20 20 21 22 22 23 24 24 25 26 26 27 28 28 30 31 32 33 34 35 36 37 38 39 40 40 40 40 41 41 41 42 42 42 43
22 22 22 22 22 23 23 24 25 25 26 27 27 28 29 29 30 31 32 34 35 36 36 37 38 39 40 40 40 40 41 41 42 42 42 43 43 43
21 22 22 23 23 23 24 24 25 26 26 27 27 28 29 30 31 32 33 34 35 36 37 38 39 40 41 40 40 41 41 41 42 42 42 43 43 44
21 22 22 22 23 23 24 25 25 26 27 27 28 29 29 30 31 32 33 35 36 37 38 39 40 41 41 40 40 40 41 42 42 42 43 44 44 45
22 22 22 22 23 24 25 26 26 27 28 29 30 30 31 31 32 33 35 36 36 37 39 40 41 42 41 40 40 41 42 42 43 43 43 44 45 46
23 23 23 24 24 26 27 27 28 28 29 30 31 31 32 32 33 34 36 37 38 39 40 41 42 42 42 41 42 43 43 43 44 44 44 45 45 46
24 25 25 25 26 27 27 28 29 30 31 31 31 32 32 33 34 35 37 38 39 40 41 42 42 43 43 43 43 43 44 44 44 45 45 45 45 45
25 26 26 26 27 28 29 30 30 31 32 32 33 33 33 34 36 37 38 39 40 41 42 43 43 44 44 44 43 43 44 45 45 45 45 45 45 44
26 27 27 28 29 29 30 31 32 33 33 33 34 34 35 36 37 38 39 40 41 42 43 43 44 44 45 44 44 44 44 46 46 46 45 45 44 44
28 28 28 29 30 31 32 32 33 33 34 34 34 35 36 37 38 39 40 41 42 43 44 44 45 45 45 44 44 44 44 45 46 47 46 45 45 44
29 30 30 31 32 32 33 33 34 34 35 35 35 36 38 39 40 41 42 43 43 44 45 45 45 45 45 45 45 45 45 45 45 46 46 46 45 45

GEFSNE_500_meanwind_228.txt.gz
Wind_Speed
10 10 10 11 11 11 11 10 11 12 12 12 13 14 14 14 14 15 15 16 16 16 17 17 18 19 19 20 20 21 22 22 22 22 23 23 23 24
11 11 11 12 12 12 12 12 12 13 13 13 14 15 15 15 15 15 16 17 17 18 18 18 19 20 20 21 21 22 23 23 23 23 24 24 24 24
12 12 13 13 13 12 12 13 14 14 14 14 15 16 16 16 16 16 17 17 17 18 18 19 20 21 21 22 23 24 24 25 25 25 25 26 26 27
13 13 13 14 14 14 14 14 15 15 15 15 15 16 16 17 17 17 17 17 17 18 19 19 20 21 22 23 24 25 25 26 26 26 27 27 28 28
14 14 14 15 15 15 15 15 15 16 16 16 16 17 17 17 17 17 18 18 18 19 19 20 21 22 23 24 25 26 26 26 27 28 28 28 29 30
15 15 15 16 16 16 15 15 16 17 17 17 18 18 18 18 18 18 19 19 19 20 21 22 23 24 25 25 26 27 27 27 28 29 30 30 31 32
16 16 16 17 17 16 16 16 17 17 18 18 18 18 18 18 19 19 20 21 21 22 23 24 25 26 26 27 28 28 29 29 30 31 32 33 33 34
17 17 17 18 18 18 18 18 18 18 18 19 19 19 19 20 20 21 22 23 23 24 25 26 26 27 28 29 30 30 31 32 32 33 34 34 34 35
19 19 19 19 19 18 18 18 18 19 19 19 19 20 20 21 22 23 24 24 25 26 27 27 28 29 30 31 32 32 33 34 34 35 35 35 35 36
19 19 19 19 18 18 19 20 20 20 21 21 22 21 21 22 23 24 24 25 26 27 28 29 30 31 32 32 33 34 35 36 36 36 36 36 37 37
20 20 19 19 19 19 20 20 21 22 22 22 22 23 23 24 24 25 25 26 27 28 30 30 31 32 33 34 35 36 37 37 37 37 37 37 38 38
21 21 20 21 21 21 21 21 22 22 23 23 24 25 25 26 27 27 28 28 29 30 31 32 33 34 34 36 37 37 37 37 37 38 38 39 40 40
21 21 22 22 22 22 23 23 23 24 24 25 26 26 27 28 29 29 29 30 30 31 32 33 34 35 36 36 37 37 38 38 39 39 40 40 40 40
22 22 23 23 23 23 23 23 23 24 25 26 27 27 27 28 28 29 30 31 31 32 33 34 35 36 36 36 36 37 38 39 40 40 40 41 41 40
22 23 23 23 24 23 23 24 25 25 26 26 26 27 28 29 29 30 31 32 33 33 34 35 36 36 37 37 37 38 39 40 41 41 41 41 40 40
22 23 23 24 24 25 26 26 26 26 26 27 28 29 29 30 30 31 32 33 34 34 35 36 36 37 38 38 39 40 41 41 41 41 42 42 42 41
24 24 24 25 25 26 26 27 28 28 28 29 29 29 30 31 31 32 32 33 35 35 36 36 37 39 39 40 40 41 42 42 43 43 43 43 43 43
25 25 26 26 27 27 28 28 28 29 29 30 30 30 30 31 32 33 33 34 35 36 36 37 38 39 40 40 41 42 42 43 44 44 44 44 44 44
26 25 26 27 27 28 28 29 29 29 30 30 30 30 31 32 33 34 35 36 36 37 38 39 40 41 41 42 42 44 44 44 44 44 45 45 45 45
27 27 27 27 28 28 29 29 29 29 30 31 31 32 33 34 34 35 36 38 38 39 39 41 42 42 43 44 44 44 45 45 44 44 45 45 46 46
27 27 27 28 28 28 29 29 30 31 31 32 32 33 34 35 36 37 38 39 39 39 40 41 42 43 44 45 45 45 45 45 45 45 45 46 46 46
28 28 29 30 29 30 30 30 31 32 32 33 33 34 35 36 37 38 39 40 40 41 42 42 43 44 45 45 45 45 45 46 46 46 46 46 46 45
29 29 30 30 30 30 30 31 32 33 33 34 35 36 36 37 38 39 40 41 41 42 42 43 44 45 45 45 45 45 45 45 45 45 45 46 46 46

GEFSNE_500_meanwind_234.txt.gz
Wind_Speed
10 11 11 12 12 12 12 11 12 12 12 12 12 13 13 14 14 15 15 16 16 16 16 16 17 17 17 18 19 19 20 21 21 22 22 22 22 22
12 12 12 12 12 13 13 13 13 13 13 13 14 14 14 14 15 15 16 16 17 17 17 17 18 18 19 19 19 20 21 22 23 24 24 24 24 24
12 13 13 13 14 14 14 14 14 13 13 13 14 14 15 14 15 15 15 16 16 16 17 17 18 19 19 20 21 21 22 23 24 25 25 25 25 25
13 13 13 14 14 14 15 14 14 14 14 14 14 15 15 16 16 15 15 15 16 17 17 18 18 19 20 21 22 23 24 24 25 26 26 27 27 27
14 14 14 14 14 14 15 15 15 15 15 15 15 15 16 16 16 16 17 17 18 18 18 19 20 21 22 22 23 24 25 25 26 27 27 28 28 29
15 15 15 15 15 15 15 16 16 16 16 16 16 16 16 17 17 18 18 18 19 19 19 20 21 22 23 24 25 26 26 27 28 28 29 29 30 31
17 16 16 16 16 16 16 16 17 17 16 17 17 17 17 18 18 18 19 19 20 20 21 21 22 23 24 25 26 27 27 28 28 29 29 30 30 31
18 18 18 18 18 17 17 17 17 17 17 17 18 18 18 18 19 19 20 20 21 22 22 23 24 25 26 26 27 27 27 28 28 29 30 31 32 32
19 19 20 20 19 19 19 19 19 19 20 21 20 20 20 20 20 21 22 22 23 23 24 25 26 27 27 27 28 28 28 29 30 31 31 32 33 34
20 20 20 20 20 20 20 20 21 21 22 22 22 22 23 23 23 23 24 24 24 25 26 26 27 28 28 29 29 29 30 31 32 33 34 34 35 35
19 19 19 19 20 20 21 21 22 22 23 23 24 24 24 24 25 25 25 25 25 26 27 28 28 29 29 30 30 31 32 33 34 34 34 36 37 37
20 19 19 20 21 21 21 22 22 22 23 23 24 24 24 24 25 25 26 26 26 27 28 29 29 30 30 31 31 32 33 34 35 35 36 37 38 39
21 20 20 21 21 21 22 22 22 23 23 24 24 25 25 25 25 25 26 27 27 27 28 29 30 30 31 31 32 33 35 35 36 36 37 38 38 39
22 22 21 22 22 22 22 23 23 23 24 24 24 25 25 26 26 26 27 27 28 29 29 30 30 31 32 32 33 34 35 36 36 36 37 38 38 38
22 22 22 22 23 23 22 23 24 24 24 25 25 25 26 27 27 27 28 29 30 30 31 31 32 32 33 34 35 36 36 37 37 38 38 39 39 39
22 22 23 23 23 23 23 24 25 26 26 26 26 26 27 27 27 28 29 29 30 30 31 32 33 34 35 36 37 37 38 38 38 40 40 40 41 41
23 24 23 24 24 24 25 25 26 26 26 26 26 27 28 28 29 30 30 30 31 31 32 33 34 35 36 37 38 38 39 40 40 41 42 42 43 43
25 25 25 25 25 25 26 26 26 27 27 27 27 28 29 30 30 31 31 31 32 32 33 35 36 37 37 38 39 39 39 41 42 42 43 43 44 44
25 26 26 26 26 26 27 27 27 27 27 27 28 29 30 31 31 31 32 33 33 34 35 36 38 39 39 39 39 40 41 42 43 44 44 44 45 45
26 26 27 27 27 27 28 27 27 27 27 28 29 29 30 31 31 32 33 34 35 35 37 38 39 40 41 41 40 41 42 43 44 45 45 45 45 45
27 27 27 27 28 28 28 28 28 28 28 29 30 30 31 32 32 33 34 35 36 37 38 39 40 41 42 42 42 42 43 44 45 45 46 46 45 45
28 28 28 28 28 29 29 29 29 29 30 31 31 32 33 33 34 35 36 37 38 38 40 41 42 43 43 43 43 43 44 45 46 46 46 46 46 45
29 29 29 29 29 30 30 31 31 31 31 31 32 33 34 34 35 36 37 38 39 40 41 42 43 44 44 44 44 45 45 46 46 46 46 45 45 46

GEFSNE_500_meanwind_240.txt.gz
Wind_Speed
11 10 11 10 11 11 12 12 13 12 12 13 13 13 12 13 13 13 13 14 14 14 15 16 17 17 17 17 18 19 20 21 21 21 22 22 22 22
12 12 12 12 12 12 13 13 13 13 13 13 13 13 13 13 13 13 14 15 16 16 17 17 18 18 18 19 19 20 20 21 21 22 22 23 23 24
13 13 13 13 13 13 13 13 13 13 13 13 13 13 13 14 14 15 15 16 17 17 18 18 18 19 19 20 20 20 21 22 23 23 24 25 25 26
15 15 15 14 14 14 13 13 13 13 13 13 13 14 14 15 15 16 16 17 17 18 18 18 19 20 20 20 20 21 22 23 24 24 25 26 26 26
16 16 16 16 15 15 14 14 14 14 14 15 15 15 16 16 16 16 17 17 18 18 18 18 19 20 20 21 21 22 24 24 24 25 25 26 26 26
17 17 17 17 16 16 16 15 16 16 16 16 17 17 17 17 17 18 18 19 18 18 19 19 20 21 21 22 23 24 24 25 25 25 26 27 28 28
18 18 18 18 18 17 17 17 17 17 17 18 18 18 18 19 19 20 20 20 20 20 20 21 22 23 23 23 24 25 25 26 26 27 28 28 29 29
19 19 19 18 18 18 18 19 19 18 18 19 19 20 20 20 21 21 21 21 21 21 22 23 23 24 25 25 25 26 26 27 27 28 28 29 29 30
19 19 19 19 19 19 19 18 19 19 19 20 20 21 21 21 21 21 22 22 23 23 24 24 25 25 26 26 26 27 27 28 28 29 29 30 30 31
20 20 20 20 20 20 20 20 20 20 20 21 22 22 21 22 22 22 23 23 24 24 25 25 25 25 25 26 26 27 28 28 29 30 30 31 31 31
20 21 21 21 21 21 21 21 21 21 22 22 22 22 22 23 23 23 23 24 24 24 25 25 25 25 26 26 27 28 29 30 30 31 31 31 31 31
20 20 21 21 21 21 21 21 22 22 22 23 22 22 22 23 24 24 24 24 24 24 25 26 26 26 26 26 28 29 30 31 32 32 33 33 33 33
20 20 21 21 22 22 22 22 23 23 23 23 23 23 23 23 24 25 25 26 26 26 26 27 27 28 28 27 28 30 31 32 32 33 34 34 34 34
21 21 21 22 23 23 23 23 24 24 24 24 24 24 24 25 25 26 26 26 26 26 27 28 28 29 30 30 30 31 32 33 34 34 35 35 36 36
22 23 22 23 24 25 25 25 25 25 25 25 25 25 26 27 27 27 27 28 27 27 27 28 30 30 31 32 32 33 34 34 35 35 36 37 37 38
24 24 25 25 25 26 26 26 26 26 26 26 26 26 27 27 27 27 28 28 28 29 29 30 32 32 33 33 34 34 35 35 36 37 38 38 39 40
25 25 26 26 26 26 26 26 26 26 26 27 27 27 27 28 28 28 29 29 29 29 30 31 32 33 34 35 35 35 36 37 38 39 39 40 41 42
26 26 26 27 27 27 26 26 26 27 27 28 28 28 28 28 28 28 28 29 30 30 30 31 32 34 35 36 37 37 38 39 40 40 41 41 42 43
26 26 27 28 28 28 27 27 27 27 28 28 29 28 29 29 29 29 29 29 30 31 31 32 33 34 35 36 37 38 39 40 41 42 43 43 44 45
27 27 28 28 28 28 28 28 28 28 28 28 28 29 29 29 29 29 29 30 30 31 32 33 34 35 36 37 38 39 41 42 43 43 44 45 46 46
28 28 29 29 29 29 29 29 29 29 29 29 29 29 29 29 29 30 30 30 31 32 33 34 36 37 38 39 40 41 42 43 44 45 45 46 47 47
30 30 30 30 30 30 30 30 30 30 30 30 30 30 31 31 31 31 31 32 33 34 35 36 38 38 39 40 42 43 43 44 45 46 46 47 47 46
31 31 31 30 31 31 31 31 31 31 31 31 31 32 31 32 32 33 33 34 35 36 37 38 38 39 40 41 42 43 44 45 45 45 45 47 47 47